Air Quality Table

TIMESTAMP NO2 SO2 PM10 PM2.5 CO TEMP HUM AIRPRES WS WD NO
2021-11-30 01:00 8.75 µg/m3 0.07 µg/m3 8.35 µg/m3 3.04 µg/m3 0.15 mg/m3 13.05 °C 66.12 % 1,012.05 mbar 8.69 m/s 231.69 Deg 2.88 µg/m3
2021-11-30 00:00 0.9 µg/m3 0.03 µg/m3 7.72 µg/m3 2.58 µg/m3 0.14 mg/m3 12.69 °C 65.93 % 1,011.73 mbar 10.66 m/s 217.89 Deg 0.47 µg/m3
2021-11-29 23:00 1.31 µg/m3 0.03 µg/m3 7.73 µg/m3 2.59 µg/m3 0.15 mg/m3 11.5 °C 72.1 % 1,011.52 mbar 10.1 m/s 238.6 Deg 0.18 µg/m3
2021-11-29 22:00 2.1 µg/m3 0.02 µg/m3 8.46 µg/m3 3.14 µg/m3 0.15 mg/m3 11.9 °C 72.56 % 1,010.66 mbar 9.11 m/s 247.06 Deg 0.39 µg/m3
2021-11-29 21:00 4.18 µg/m3 0.07 µg/m3 8.87 µg/m3 3.42 µg/m3 0.16 mg/m3 12.16 °C 73.04 % 1,009.67 mbar 8.07 m/s 261.22 Deg 0.72 µg/m3
2021-11-29 20:00 3.58 µg/m3 0.1 µg/m3 9.2 µg/m3 3.1 µg/m3 0.13 mg/m3 14.35 °C 55.56 % 1,008.58 mbar 12.4 m/s 231.71 Deg 0.68 µg/m3
2021-11-29 19:00 5.8 µg/m3 0.18 µg/m3 9.93 µg/m3 3.28 µg/m3 0.12 mg/m3 15.3 °C 49.02 % 1,007.48 mbar 13.46 m/s 224.18 Deg 1.79 µg/m3
2021-11-29 18:00 13.36 µg/m3 0.16 µg/m3 10.36 µg/m3 3.19 µg/m3 0.19 mg/m3 15.29 °C 57.27 % 1,006.42 mbar 12.41 m/s 222.68 Deg 6.12 µg/m3
2021-11-29 17:00 11.64 µg/m3 0.06 µg/m3 7.75 µg/m3 2.58 µg/m3 0.18 mg/m3 13.76 °C 70.38 % 1,006.00 mbar 11.76 m/s 214.08 Deg 1.34 µg/m3
2021-11-29 16:00 8.91 µg/m3 0.13 µg/m3 10.33 µg/m3 3.17 µg/m3 0.14 mg/m3 14.89 °C 61.26 % 1,005.17 mbar 13.13 m/s 212.75 Deg 1.44 µg/m3
2021-11-29 15:00 9.73 µg/m3 0.19 µg/m3 12.06 µg/m3 3.61 µg/m3 0.13 mg/m3 16.07 °C 55.39 % 1,004.53 mbar 13.95 m/s 207.75 Deg 1.79 µg/m3
2021-11-29 14:00 8.89 µg/m3 0.15 µg/m3 12.14 µg/m3 3.38 µg/m3 0.14 mg/m3 15.84 °C 56.67 % 1,004.54 mbar 13.95 m/s 204.82 Deg 2.19 µg/m3
2021-11-29 13:00 12.54 µg/m3 0.2 µg/m3 10.27 µg/m3 3.04 µg/m3 0.13 mg/m3 15.87 °C 55.24 % 1,005.34 mbar 13.7 m/s 202 Deg 5.76 µg/m3
2021-11-29 12:00 16.36 µg/m3 0.15 µg/m3 10.28 µg/m3 3.08 µg/m3 0.14 mg/m3 16.03 °C 52.73 % 1,005.90 mbar 13.22 m/s 206.93 Deg 3.51 µg/m3
2021-11-29 11:00 10.96 µg/m3 0.12 µg/m3 9.7 µg/m3 3.01 µg/m3 0.15 mg/m3 15.88 °C 52.09 % 1,006.17 mbar 12.63 m/s 203.43 Deg 3 µg/m3
2021-11-29 10:00 12.78 µg/m3 0.19 µg/m3 9.15 µg/m3 2.8 µg/m3 0.15 mg/m3 15.35 °C 52.26 % 1,006.36 mbar 11.43 m/s 205.28 Deg 3.51 µg/m3
2021-11-29 09:00 21.87 µg/m3 0.32 µg/m3 9.3 µg/m3 3.13 µg/m3 0.15 mg/m3 15.07 °C 53.43 % 1,006.26 mbar 10.73 m/s 208.33 Deg 5.39 µg/m3
2021-11-29 08:00 21.19 µg/m3 0.21 µg/m3 9.47 µg/m3 3.18 µg/m3 0.16 mg/m3 14.8 °C 53.53 % 1,005.80 mbar 9.77 m/s 209.96 Deg 2.21 µg/m3
2021-11-29 07:00 21.66 µg/m3 0.35 µg/m3 8.67 µg/m3 2.66 µg/m3 0.17 mg/m3 14.96 °C 52.12 % 1,005.11 mbar 9.9 m/s 207.13 Deg 6.2 µg/m3
2021-11-29 06:00 15.09 µg/m3 0.29 µg/m3 7.8 µg/m3 2.51 µg/m3 0.15 mg/m3 14.89 °C 53.78 % 1,004.66 mbar 8.96 m/s 210.03 Deg 3.56 µg/m3
2021-11-29 05:00 2.84 µg/m3 0.01 µg/m3 7.41 µg/m3 2.3 µg/m3 0.13 mg/m3 14.69 °C 57.63 % 1,004.41 mbar 8.59 m/s 215.64 Deg 0.33 µg/m3
2021-11-29 04:00 1.73 µg/m3 0.02 µg/m3 7.48 µg/m3 2.35 µg/m3 0.09 mg/m3 14.4 °C 62.4 % 1,004.11 mbar 7.81 m/s 228.13 Deg 0.48 µg/m3
2021-11-29 03:00 2.56 µg/m3 -0.01 µg/m3 7.62 µg/m3 2.43 µg/m3 0.06 mg/m3 14.89 °C 61 % 1,003.83 mbar 7.39 m/s 212.12 Deg 1.16 µg/m3
2021-11-29 02:00 2.67 µg/m3 -0.04 µg/m3 7.77 µg/m3 2.56 µg/m3 0.08 mg/m3 14.33 °C 69.47 % 1,003.69 mbar 6.13 m/s 221.07 Deg 0.17 µg/m3
2021-11-29 01:00 3.04 µg/m3 -0.01 µg/m3 7.95 µg/m3 2.72 µg/m3 0.09 mg/m3 14.2 °C 77.58 % 1,003.87 mbar 5.41 m/s 237.97 Deg 0.26 µg/m3
2021-11-29 00:00 6.05 µg/m3 0 µg/m3 7.98 µg/m3 2.72 µg/m3 0.1 mg/m3 14.79 °C 72.48 % 1,003.75 mbar 5.06 m/s 225.32 Deg 0.41 µg/m3
2021-11-28 23:00 37.4 µg/m3 0.39 µg/m3 11.46 µg/m3 5.12 µg/m3 0.13 mg/m3 15.27 °C 70.15 % 1,003.65 mbar 4.35 m/s 213.93 Deg 27.11 µg/m3
2021-11-28 22:00 7.09 µg/m3 0 µg/m3 9.66 µg/m3 3.63 µg/m3 0.1 mg/m3 15.55 °C 67.26 % 1,003.66 mbar 4.89 m/s 225.89 Deg 0.45 µg/m3
2021-11-28 21:00 14.83 µg/m3 -0.01 µg/m3 11.66 µg/m3 4.47 µg/m3 0.11 mg/m3 16.06 °C 65.74 % 1,003.11 mbar 5.2 m/s 208.93 Deg 0.69 µg/m3
2021-11-28 20:00 9.91 µg/m3 -0.02 µg/m3 10.41 µg/m3 4.01 µg/m3 0.11 mg/m3 16.2 °C 64.64 % 1,002.84 mbar 5.43 m/s 217.14 Deg 0.42 µg/m3
2021-11-28 19:00 9.1 µg/m3 -0.01 µg/m3 9.02 µg/m3 3.43 µg/m3 0.13 mg/m3 15.6 °C 76.69 % 1,002.37 mbar 5.67 m/s 212.53 Deg 0.51 µg/m3
2021-11-28 18:00 8.12 µg/m3 0.01 µg/m3 9.65 µg/m3 3.62 µg/m3 0.15 mg/m3 15.61 °C 83.1 % 1,001.68 mbar 6.67 m/s 211.27 Deg 0.71 µg/m3
2021-11-28 17:00 7.62 µg/m3 -0.01 µg/m3 8.43 µg/m3 2.92 µg/m3 0.15 mg/m3 15.89 °C 86.52 % 1,001.25 mbar 6.53 m/s 215.08 Deg 0.31 µg/m3
2021-11-28 16:00 11.39 µg/m3 0.02 µg/m3 8.1 µg/m3 2.84 µg/m3 0.14 mg/m3 17.5 °C 77.03 % 1,000.84 mbar 5.94 m/s 197.48 Deg 0.99 µg/m3
2021-11-28 15:00 9.26 µg/m3 0.01 µg/m3 8.06 µg/m3 2.82 µg/m3 0.15 mg/m3 17.32 °C 76.43 % 1,000.88 mbar 6.33 m/s 201.45 Deg 0.56 µg/m3
2021-11-28 14:00 18.06 µg/m3 0.08 µg/m3 8.14 µg/m3 2.87 µg/m3 0.16 mg/m3 16.97 °C 78.45 % 1,001.41 mbar 5.86 m/s 197.73 Deg 2.07 µg/m3
2021-11-28 13:00 45.82 µg/m3 0.33 µg/m3 9.1 µg/m3 3.6 µg/m3 0.18 mg/m3 16.15 °C 83.21 % 1,001.94 mbar 5.42 m/s 184.13 Deg 29.39 µg/m3
2021-11-28 12:00 48.66 µg/m3 0.38 µg/m3 10 µg/m3 4.26 µg/m3 0.21 mg/m3 15.13 °C 91.56 % 1,004.09 mbar 4.85 m/s 179.25 Deg 26.66 µg/m3
2021-11-28 11:00 55.09 µg/m3 0.54 µg/m3 10.92 µg/m3 4.94 µg/m3 0.19 mg/m3 14.39 °C 91.88 % 1,004.87 mbar 4.74 m/s 180.13 Deg 44.32 µg/m3
2021-11-28 10:00 14.24 µg/m3 0.06 µg/m3 9.21 µg/m3 3.62 µg/m3 0.19 mg/m3 13.8 °C 89.95 % 1,005.30 mbar 6.02 m/s 188.69 Deg 1.55 µg/m3
2021-11-28 09:00 20.95 µg/m3 0.03 µg/m3 9.03 µg/m3 3.53 µg/m3 0.16 mg/m3 14.09 °C 85.75 % 1,005.57 mbar 6.08 m/s 195.73 Deg 1.34 µg/m3
2021-11-28 08:00 8.91 µg/m3 -0.01 µg/m3 9.03 µg/m3 3.49 µg/m3 0.16 mg/m3 14.39 °C 82.17 % 1,005.02 mbar 5.96 m/s 200.43 Deg 0.5 µg/m3
2021-11-28 07:00 8.1 µg/m3 0.03 µg/m3 8.73 µg/m3 3.28 µg/m3 0.15 mg/m3 14.71 °C 79.93 % 1,005.19 mbar 7.41 m/s 199.4 Deg 0.29 µg/m3
2021-11-28 06:00 9.96 µg/m3 0.01 µg/m3 8.81 µg/m3 3.19 µg/m3 0.13 mg/m3 15.88 °C 67.37 % 1,004.79 mbar 8.2 m/s 202.37 Deg 0.51 µg/m3
2021-11-28 05:00 7.75 µg/m3 -0.01 µg/m3 9.74 µg/m3 3.54 µg/m3 0.12 mg/m3 18.21 °C 59.32 % 1,004.52 mbar 9.22 m/s 205.2 Deg 1.47 µg/m3
2021-11-28 04:00 5.09 µg/m3 0.02 µg/m3 10.39 µg/m3 4 µg/m3 0.08 mg/m3 18.62 °C 60.21 % 1,004.29 mbar 8.53 m/s 199.15 Deg 0.45 µg/m3
2021-11-28 03:00 5.77 µg/m3 0.03 µg/m3 11.46 µg/m3 4.27 µg/m3 0.02 mg/m3 18.51 °C 56.69 % 1,004.48 mbar 7.56 m/s 203.17 Deg 0.18 µg/m3
2021-11-28 02:00 5.69 µg/m3 0.03 µg/m3 11.66 µg/m3 4.14 µg/m3 0.03 mg/m3 18.78 °C 58.16 % 1,004.81 mbar 8.37 m/s 198.17 Deg 0.38 µg/m3
2021-11-28 01:00 6.21 µg/m3 0.06 µg/m3 14.07 µg/m3 4.76 µg/m3 0.03 mg/m3 18.72 °C 59.99 % 1,005.36 mbar 8.53 m/s 199.56 Deg -0.04 µg/m3
2021-11-28 00:00 20.2 µg/m3 0.13 µg/m3 15.91 µg/m3 5.58 µg/m3 0.04 mg/m3 18.59 °C 58.09 % 1,004.97 mbar 6.62 m/s 198.83 Deg 2.59 µg/m3
2021-11-27 23:00 14.34 µg/m3 0.25 µg/m3 16.79 µg/m3 6.33 µg/m3 0.05 mg/m3 19.01 °C 57.24 % 1,005.29 mbar 6.25 m/s 198.74 Deg 0.53 µg/m3
2021-11-27 22:00 28.87 µg/m3 0.2 µg/m3 20.66 µg/m3 8.02 µg/m3 0.08 mg/m3 18.57 °C 59.73 % 1,005.76 mbar 3.96 m/s 193.27 Deg 0.57 µg/m3
2021-11-27 21:00 32.89 µg/m3 0.29 µg/m3 19.7 µg/m3 8.01 µg/m3 0.09 mg/m3 18.48 °C 55.86 % 1,005.98 mbar 4.71 m/s 202.13 Deg 10.07 µg/m3
2021-11-27 20:00 33 µg/m3 0.26 µg/m3 15.78 µg/m3 6.74 µg/m3 0.1 mg/m3 18.33 °C 60.06 % 1,005.70 mbar 4.78 m/s 209.08 Deg 13.4 µg/m3
2021-11-27 19:00 39.19 µg/m3 0.22 µg/m3 15.97 µg/m3 6.67 µg/m3 0.12 mg/m3 17.67 °C 63.3 % 1,005.21 mbar 3.27 m/s 211.93 Deg 11.8 µg/m3
2021-11-27 18:00 54.62 µg/m3 0.56 µg/m3 16.28 µg/m3 6.87 µg/m3 0.14 mg/m3 17.57 °C 63.23 % 1,004.62 mbar 3.64 m/s 202.8 Deg 34.46 µg/m3
2021-11-27 17:00 56.19 µg/m3 0.49 µg/m3 16.46 µg/m3 7.18 µg/m3 0.19 mg/m3 17.89 °C 65.34 % 1,004.00 mbar 3.51 m/s 216.23 Deg 34.8 µg/m3
2021-11-27 16:00 32.29 µg/m3 0.2 µg/m3 13.95 µg/m3 5.66 µg/m3 0.11 mg/m3 18.33 °C 62.93 % 1,003.18 mbar 3.57 m/s 239.33 Deg 13.75 µg/m3
2021-11-27 15:00 6.95 µg/m3 0.05 µg/m3 12.55 µg/m3 5.15 µg/m3 0.1 mg/m3 18.06 °C 65.52 % 1,002.61 mbar 4.23 m/s 259.65 Deg 1.18 µg/m3
2021-11-27 14:00 15.98 µg/m3 0.05 µg/m3 14.71 µg/m3 5.72 µg/m3 0.12 mg/m3 17.43 °C 68.6 % 1,002.10 mbar 2.7 m/s 275.25 Deg 4.47 µg/m3
2021-11-27 13:00 22.5 µg/m3 0.08 µg/m3 14.88 µg/m3 6.21 µg/m3 0.13 mg/m3 16.53 °C 75.13 % 1,002.67 mbar 1.89 m/s 302.62 Deg 5.59 µg/m3
2021-11-27 12:00 30.22 µg/m3 0.09 µg/m3 15.71 µg/m3 7.15 µg/m3 0.13 mg/m3 15.93 °C 79.24 % 1,003.40 mbar 1.72 m/s 313.87 Deg 5.22 µg/m3
2021-11-27 11:00 35.98 µg/m3 0.14 µg/m3 15.49 µg/m3 6.82 µg/m3 0.16 mg/m3 15.55 °C 79.35 % 1,004.35 mbar 1.85 m/s 305.09 Deg 7.77 µg/m3
2021-11-27 10:00 44.42 µg/m3 0.19 µg/m3 16.51 µg/m3 7.39 µg/m3 0.21 mg/m3 15.16 °C 81.95 % 1,005.13 mbar 2.26 m/s 244.87 Deg 6.24 µg/m3
2021-11-27 09:00 50.33 µg/m3 0.56 µg/m3 18.56 µg/m3 8.94 µg/m3 0.23 mg/m3 15.86 °C 75.38 % 1,005.53 mbar 3.75 m/s 218.33 Deg 32.55 µg/m3
2021-11-27 08:00 56.81 µg/m3 0.46 µg/m3 31.77 µg/m3 11.71 µg/m3 0.19 mg/m3 18.38 °C 60.98 % 1,004.70 mbar 2.87 m/s 181.47 Deg 10.24 µg/m3
2021-11-27 07:00 28.33 µg/m3 0.3 µg/m3 37.58 µg/m3 14.43 µg/m3 0.14 mg/m3 18.78 °C 59.51 % 1,004.47 mbar 3.21 m/s 182.89 Deg 6.33 µg/m3
2021-11-27 06:00 26.71 µg/m3 0.2 µg/m3 34.41 µg/m3 13.72 µg/m3 0.13 mg/m3 18.64 °C 61.58 % 1,004.72 mbar 3.5 m/s 190.39 Deg 1.48 µg/m3
2021-11-27 05:00 30.47 µg/m3 0.15 µg/m3 24.39 µg/m3 9.3 µg/m3 0.13 mg/m3 18.6 °C 62.11 % 1,004.89 mbar 3.4 m/s 197.53 Deg 2.12 µg/m3
2021-11-27 04:00 31.84 µg/m3 0.16 µg/m3 20.69 µg/m3 7.86 µg/m3 0.1 mg/m3 18.3 °C 64.17 % 1,005.34 mbar 2.98 m/s 191.68 Deg 1.03 µg/m3
2021-11-27 03:00 18.85 µg/m3 0.15 µg/m3 13.11 µg/m3 4.86 µg/m3 0.05 mg/m3 18.28 °C 65.36 % 1,006.29 mbar 3.41 m/s 196.88 Deg 0.35 µg/m3
2021-11-27 02:00 22.66 µg/m3 0.16 µg/m3 10.2 µg/m3 3.67 µg/m3 0.07 mg/m3 18.02 °C 63.42 % 1,007.03 mbar 3.29 m/s 198.67 Deg 0.58 µg/m3
2021-11-27 01:00 47.43 µg/m3 0.32 µg/m3 10.01 µg/m3 3.64 µg/m3 0.11 mg/m3 17.17 °C 62.4 % 1,007.49 mbar 2.39 m/s 188.88 Deg 3.65 µg/m3
2021-11-27 00:00 71.96 µg/m3 0.43 µg/m3 10.62 µg/m3 4.04 µg/m3 0.14 mg/m3 16.53 °C 66.4 % 1,007.68 mbar 2.01 m/s 195.38 Deg 9.6 µg/m3
2021-11-26 23:00 59.53 µg/m3 0.23 µg/m3 9.58 µg/m3 3.5 µg/m3 0.13 mg/m3 16.85 °C 63.38 % 1,007.99 mbar 2.74 m/s 192.15 Deg 5.33 µg/m3
2021-11-26 22:00 37.92 µg/m3 0.07 µg/m3 10.36 µg/m3 3.76 µg/m3 0.15 mg/m3 17.12 °C 62.73 % 1,008.10 mbar 3.56 m/s 205.19 Deg 0.96 µg/m3
2021-11-26 21:00 23.43 µg/m3 0.14 µg/m3 9.2 µg/m3 3.24 µg/m3 0.13 mg/m3 17.55 °C 56.25 % 1,008.07 mbar 5.4 m/s 211.09 Deg 0.79 µg/m3
2021-11-26 20:00 33.05 µg/m3 0.08 µg/m3 9.43 µg/m3 3.38 µg/m3 0.16 mg/m3 17.46 °C 58.63 % 1,007.92 mbar 5.6 m/s 211.74 Deg 2.49 µg/m3
2021-11-26 19:00 28.89 µg/m3 0.06 µg/m3 9.88 µg/m3 3.45 µg/m3 0.19 mg/m3 17.39 °C 59.91 % 1,007.89 mbar 5.6 m/s 210.46 Deg 2.12 µg/m3
2021-11-26 18:00 38.55 µg/m3 0.06 µg/m3 10.14 µg/m3 3.52 µg/m3 0.2 mg/m3 17.44 °C 58.02 % 1,007.47 mbar 5.91 m/s 214.61 Deg 2.07 µg/m3
2021-11-26 17:00 26.78 µg/m3 0.09 µg/m3 9.89 µg/m3 3.48 µg/m3 0.2 mg/m3 17.7 °C 57.58 % 1,006.92 mbar 6.25 m/s 211.45 Deg 2.22 µg/m3
2021-11-26 16:00 19.67 µg/m3 0.1 µg/m3 9.98 µg/m3 3.31 µg/m3 0.2 mg/m3 18.31 °C 54.64 % 1,006.51 mbar 6.82 m/s 222.05 Deg 3.7 µg/m3
2021-11-26 15:00 19.63 µg/m3 0.29 µg/m3 9.65 µg/m3 3.15 µg/m3 0.23 mg/m3 18.7 °C 53.1 % 1,006.23 mbar 7.49 m/s 209.06 Deg 3.78 µg/m3
2021-11-26 14:00 16.84 µg/m3 0.25 µg/m3 9.32 µg/m3 3.13 µg/m3 0.27 mg/m3 18.98 °C 53.92 % 1,006.40 mbar 8.61 m/s 219.62 Deg 5.95 µg/m3
2021-11-26 13:00 14.17 µg/m3 -0 µg/m3 10.51 µg/m3 3.76 µg/m3 0.34 mg/m3 19.29 °C 58.3 % 1,006.12 mbar 8.91 m/s 213.3 Deg 2.25 µg/m3
2021-11-26 12:00 23.73 µg/m3 -0.01 µg/m3 11.65 µg/m3 4.76 µg/m3 0.44 mg/m3 19.27 °C 65.74 % 1,006.39 mbar 8.66 m/s 202.28 Deg 5.94 µg/m3
2021-11-26 11:00 25.97 µg/m3 0.06 µg/m3 12.39 µg/m3 5.39 µg/m3 0.6 mg/m3 19.11 °C 64.72 % 1,006.48 mbar 7.52 m/s 197.13 Deg 5.24 µg/m3
2021-11-26 10:00 56.43 µg/m3 1.13 µg/m3 24.21 µg/m3 10.48 µg/m3 1.38 mg/m3 18.12 °C 68.27 % 1,006.44 mbar 2.36 m/s 187.72 Deg 43.04 µg/m3
2021-11-26 09:00 15.94 µg/m3 2.01 µg/m3 31.56 µg/m3 15.41 µg/m3 3.57 mg/m3 16.42 °C 73.9 % 1,006.35 mbar 0.86 m/s 170.93 Deg 165.71 µg/m3
2021-11-25 20:00 0 µg/m3 0 µg/m3 12.06 µg/m3 5.67 µg/m3 0.16 mg/m3 18.08 °C 81.3 % 1,004.29 mbar 3.42 m/s 249.06 Deg 0 µg/m3
2021-11-25 19:00 0 µg/m3 0 µg/m3 15.92 µg/m3 8.05 µg/m3 0.31 mg/m3 18.76 °C 87.87 % 1,004.13 mbar 2.16 m/s 243.42 Deg 0 µg/m3
2021-11-25 18:00 0 µg/m3 0 µg/m3 13.96 µg/m3 6.55 µg/m3 0.33 mg/m3 19.46 °C 84.18 % 1,003.49 mbar 1.87 m/s 231.53 Deg 0 µg/m3
2021-11-25 17:00 0 µg/m3 0 µg/m3 15.9 µg/m3 7.67 µg/m3 0.34 mg/m3 20.07 °C 80.72 % 1,003.47 mbar 2.59 m/s 194.74 Deg 0 µg/m3
2021-11-25 16:00 0 µg/m3 0 µg/m3 15.06 µg/m3 7.36 µg/m3 0.24 mg/m3 20.73 °C 77.51 % 1,003.50 mbar 4.56 m/s 198.67 Deg 0 µg/m3
2021-11-25 15:00 0 µg/m3 0 µg/m3 16.02 µg/m3 7.94 µg/m3 0.2 mg/m3 20.84 °C 78.95 % 1,003.78 mbar 4.78 m/s 196.99 Deg 0 µg/m3
2021-11-25 14:00 0 µg/m3 0 µg/m3 20.21 µg/m3 10.13 µg/m3 0.21 mg/m3 20.3 °C 82.03 % 1,004.40 mbar 2.39 m/s 171.35 Deg 0 µg/m3
2021-11-25 13:00 0 µg/m3 0 µg/m3 15.89 µg/m3 8.06 µg/m3 0.27 mg/m3 17.99 °C 89.9 % 1,005.49 mbar 1.89 m/s 208.82 Deg 0 µg/m3
2021-11-25 12:00 0 µg/m3 0 µg/m3 12.55 µg/m3 5.9 µg/m3 0.19 mg/m3 16.35 °C 94.69 % 1,006.50 mbar 1.92 m/s 262.43 Deg 0 µg/m3
2021-11-25 11:00 0 µg/m3 0 µg/m3 22.84 µg/m3 11.24 µg/m3 0.18 mg/m3 17.55 °C 91.31 % 1,007.01 mbar 2.19 m/s 268.2 Deg 0 µg/m3
2021-11-25 10:00 0 µg/m3 0 µg/m3 15.71 µg/m3 7.64 µg/m3 0.25 mg/m3 18.18 °C 93.21 % 1,007.43 mbar 1.01 m/s 224.65 Deg 0 µg/m3
2021-11-25 09:00 0 µg/m3 0 µg/m3 13.76 µg/m3 6.44 µg/m3 0.28 mg/m3 17.2 °C 93.37 % 1,008.78 mbar 0.98 m/s 235.68 Deg 0 µg/m3
2021-11-25 08:00 0 µg/m3 0 µg/m3 14.11 µg/m3 6.89 µg/m3 0.13 mg/m3 17.51 °C 92.38 % 1,008.64 mbar 1.26 m/s 267.29 Deg 0 µg/m3
2021-11-25 07:00 0 µg/m3 0 µg/m3 12.93 µg/m3 5.86 µg/m3 -0.01 mg/m3 17.33 °C 90.18 % 1,009.06 mbar 0.8 m/s 218.67 Deg 0 µg/m3
2021-11-25 06:00 0 µg/m3 0 µg/m3 11.7 µg/m3 5.29 µg/m3 -0.01 mg/m3 17.99 °C 84.29 % 1,009.27 mbar 0.66 m/s 295.86 Deg 0 µg/m3
2021-11-25 05:00 0 µg/m3 0 µg/m3 10.74 µg/m3 4.72 µg/m3 -0.01 mg/m3 17.51 °C 81.32 % 1,009.87 mbar 0.4 m/s 104.98 Deg 0 µg/m3
2021-11-25 04:00 0 µg/m3 0 µg/m3 12.12 µg/m3 5.69 µg/m3 -0 mg/m3 16.86 °C 82.47 % 1,010.64 mbar 0.21 m/s 122.95 Deg 0 µg/m3
2021-11-25 03:00 0 µg/m3 0 µg/m3 14.19 µg/m3 7.26 µg/m3 0.04 mg/m3 16.45 °C 85.89 % 1,011.28 mbar 0.1 m/s 309.35 Deg 0 µg/m3
2021-11-25 02:00 0 µg/m3 0 µg/m3 20.16 µg/m3 10.97 µg/m3 0.21 mg/m3 15.57 °C 89.79 % 1,011.69 mbar 0.49 m/s 210.58 Deg 0 µg/m3
2021-11-25 01:00 0 µg/m3 0 µg/m3 24.63 µg/m3 13.86 µg/m3 0.36 mg/m3 14.8 °C 90.39 % 1,012.34 mbar 1.46 m/s 199.65 Deg 0 µg/m3
2021-11-25 00:00 0 µg/m3 0 µg/m3 27.99 µg/m3 15.75 µg/m3 0.45 mg/m3 14.98 °C 89.91 % 1,012.94 mbar 1.59 m/s 201.2 Deg 0 µg/m3
2021-11-24 23:00 0 µg/m3 0 µg/m3 29.37 µg/m3 15.63 µg/m3 0.49 mg/m3 15.64 °C 88.13 % 1,013.40 mbar 0.87 m/s 197.14 Deg 0 µg/m3
2021-11-24 22:00 0 µg/m3 0 µg/m3 31.67 µg/m3 17.02 µg/m3 0.59 mg/m3 15.75 °C 87.33 % 1,013.66 mbar 1.8 m/s 202.91 Deg 0 µg/m3
2021-11-24 21:00 0 µg/m3 0 µg/m3 32.65 µg/m3 16.49 µg/m3 0.67 mg/m3 16.5 °C 84.01 % 1,013.79 mbar 1.21 m/s 198.4 Deg 0 µg/m3
2021-11-24 20:00 0 µg/m3 0 µg/m3 25.88 µg/m3 13.06 µg/m3 0.56 mg/m3 17.42 °C 78.96 % 1,013.81 mbar 1.23 m/s 241.84 Deg 0 µg/m3
2021-11-24 19:00 0 µg/m3 0 µg/m3 20.03 µg/m3 9.13 µg/m3 0.34 mg/m3 17.91 °C 74.17 % 1,013.60 mbar 0.06 m/s 254.33 Deg 0 µg/m3
2021-11-24 18:00 0 µg/m3 0 µg/m3 17.57 µg/m3 7.78 µg/m3 0.11 mg/m3 18.23 °C 72.44 % 1,013.48 mbar 0 m/s 298.82 Deg 0 µg/m3
2021-11-24 17:00 0 µg/m3 0 µg/m3 15.27 µg/m3 6.04 µg/m3 0.1 mg/m3 18.71 °C 71.19 % 1,013.37 mbar 0.09 m/s 255.17 Deg 0 µg/m3
2021-11-24 16:00 0 µg/m3 0 µg/m3 11.34 µg/m3 4.27 µg/m3 0.1 mg/m3 19.31 °C 69.62 % 1,013.44 mbar 0.65 m/s 174.36 Deg 0 µg/m3
2021-11-24 15:00 0 µg/m3 0 µg/m3 10.68 µg/m3 4.03 µg/m3 0.03 mg/m3 19.87 °C 67.03 % 1,013.47 mbar 0.73 m/s 84.28 Deg 0 µg/m3
2021-11-24 14:00 0 µg/m3 0 µg/m3 13.18 µg/m3 4.6 µg/m3 0.07 mg/m3 19.58 °C 68.55 % 1,013.70 mbar 0.65 m/s 275.4 Deg 0 µg/m3
2021-11-24 13:00 0 µg/m3 0 µg/m3 11.82 µg/m3 4.56 µg/m3 0.2 mg/m3 19.1 °C 71.55 % 1,014.06 mbar 0.79 m/s 276.5 Deg 0 µg/m3
2021-11-24 12:00 0 µg/m3 0 µg/m3 15.3 µg/m3 5.41 µg/m3 0.17 mg/m3 19.14 °C 71.6 % 1,014.54 mbar 0.73 m/s 265.6 Deg 0 µg/m3
2021-11-24 11:00 0 µg/m3 0 µg/m3 15.52 µg/m3 5.48 µg/m3 0.13 mg/m3 18.97 °C 69.93 % 1,015.12 mbar 1.19 m/s 278.85 Deg 0 µg/m3
2021-11-24 10:00 0 µg/m3 0 µg/m3 43.16 µg/m3 21.98 µg/m3 0.73 mg/m3 17.47 °C 78.62 % 1,015.43 mbar 1.24 m/s 200.12 Deg 0 µg/m3
2021-11-24 09:00 0 µg/m3 0 µg/m3 49.17 µg/m3 26.64 µg/m3 0.87 mg/m3 15.33 °C 86.92 % 1,015.24 mbar 1.82 m/s 197.53 Deg 0 µg/m3
2021-11-24 08:00 0 µg/m3 0 µg/m3 36.18 µg/m3 20.73 µg/m3 0.59 mg/m3 14.36 °C 90.51 % 1,015.00 mbar 2.1 m/s 201.77 Deg 0 µg/m3
2021-11-24 07:00 0 µg/m3 0 µg/m3 28.43 µg/m3 16.6 µg/m3 0.49 mg/m3 14.25 °C 90.39 % 1,014.65 mbar 2.19 m/s 199.66 Deg 0 µg/m3
2021-11-24 06:00 0 µg/m3 0 µg/m3 21.88 µg/m3 12.31 µg/m3 0.32 mg/m3 14.14 °C 91.58 % 1,014.55 mbar 2.61 m/s 199.69 Deg 0 µg/m3
2021-11-24 05:00 0 µg/m3 0 µg/m3 19.4 µg/m3 10.13 µg/m3 0.25 mg/m3 14.26 °C 91.63 % 1,014.21 mbar 2.4 m/s 202.06 Deg 0 µg/m3
2021-11-24 04:00 0 µg/m3 0 µg/m3 17.5 µg/m3 9.21 µg/m3 0.25 mg/m3 14.55 °C 90.89 % 1,014.26 mbar 2.15 m/s 203.36 Deg 0 µg/m3
2021-11-24 03:00 0 µg/m3 0 µg/m3 18.5 µg/m3 10.06 µg/m3 0.24 mg/m3 14.72 °C 89.01 % 1,014.32 mbar 2.07 m/s 194.52 Deg 0 µg/m3
2021-11-24 02:00 0 µg/m3 0 µg/m3 17.9 µg/m3 9.52 µg/m3 0.23 mg/m3 14.93 °C 87.69 % 1,014.32 mbar 2.5 m/s 197.68 Deg 0 µg/m3
2021-11-24 01:00 0 µg/m3 0 µg/m3 20.98 µg/m3 11.79 µg/m3 0.32 mg/m3 15.38 °C 85.94 % 1,014.35 mbar 1.82 m/s 197.19 Deg 0 µg/m3
2021-11-24 00:00 0 µg/m3 0 µg/m3 19.11 µg/m3 10.3 µg/m3 0.34 mg/m3 15.76 °C 85.41 % 1,014.58 mbar 1.63 m/s 200.63 Deg 0 µg/m3
2021-11-23 23:00 0 µg/m3 0 µg/m3 24.01 µg/m3 13.38 µg/m3 0.4 mg/m3 15.86 °C 85.89 % 1,014.78 mbar 2.46 m/s 202.6 Deg 0 µg/m3
2021-11-23 22:00 0 µg/m3 0 µg/m3 21.22 µg/m3 11.57 µg/m3 0.4 mg/m3 16.5 °C 83.6 % 1,014.49 mbar 2.06 m/s 202.05 Deg 0 µg/m3
2021-11-23 21:00 0 µg/m3 0 µg/m3 21.96 µg/m3 11.53 µg/m3 0.51 mg/m3 17.47 °C 80.19 % 1,014.15 mbar 1.97 m/s 201.97 Deg 0 µg/m3
2021-11-23 20:00 0 µg/m3 0 µg/m3 14.69 µg/m3 6.72 µg/m3 0.33 mg/m3 18.38 °C 74.91 % 1,013.87 mbar 1.45 m/s 243.02 Deg 0 µg/m3
2021-11-23 19:00 0 µg/m3 0 µg/m3 13.72 µg/m3 6.19 µg/m3 0.29 mg/m3 18.53 °C 75.06 % 1,013.51 mbar 1.87 m/s 270.72 Deg 0 µg/m3
2021-11-23 18:00 0 µg/m3 0 µg/m3 14.34 µg/m3 6.38 µg/m3 0.33 mg/m3 18.83 °C 74.98 % 1,012.95 mbar 2.16 m/s 274.65 Deg 0 µg/m3
2021-11-23 17:00 0 µg/m3 0 µg/m3 13.94 µg/m3 5.97 µg/m3 0.33 mg/m3 19.51 °C 74.27 % 1,012.41 mbar 2.28 m/s 284.56 Deg 0 µg/m3
2021-11-23 16:00 0 µg/m3 0 µg/m3 13.12 µg/m3 5.56 µg/m3 0.31 mg/m3 20.56 °C 66.5 % 1,011.97 mbar 3.49 m/s 254.49 Deg 0 µg/m3
2021-11-23 15:00 0 µg/m3 0 µg/m3 14.14 µg/m3 6.09 µg/m3 0.35 mg/m3 20.95 °C 66.47 % 1,011.73 mbar 3.65 m/s 249.8 Deg 0 µg/m3
2021-11-23 14:00 0 µg/m3 0 µg/m3 15.18 µg/m3 6.47 µg/m3 0.38 mg/m3 20.93 °C 66.88 % 1,011.67 mbar 4.15 m/s 248.67 Deg 0 µg/m3
2021-11-23 13:00 0 µg/m3 0 µg/m3 13.66 µg/m3 6.26 µg/m3 0.49 mg/m3 20.92 °C 68.93 % 1,011.86 mbar 5.1 m/s 211.95 Deg 0 µg/m3
2021-11-23 12:00 0 µg/m3 0 µg/m3 13.53 µg/m3 6.3 µg/m3 0.58 mg/m3 20.87 °C 71.32 % 1,012.15 mbar 5.77 m/s 208.07 Deg 0 µg/m3
2021-11-23 11:00 0 µg/m3 0 µg/m3 13.77 µg/m3 6.31 µg/m3 0.78 mg/m3 20.69 °C 71.3 % 1,012.30 mbar 5.54 m/s 199.07 Deg 0 µg/m3
2021-11-23 10:00 68.42 µg/m3 0 µg/m3 26.89 µg/m3 9.34 µg/m3 1.37 mg/m3 20.13 °C 73.34 % 1,012.09 mbar 3.98 m/s 193.6 Deg 69.37 µg/m3
2021-11-23 09:00 102.59 µg/m3 0 µg/m3 42.52 µg/m3 22.32 µg/m3 0 mg/m3 16.96 °C 84.72 % 1,011.74 mbar 1.32 m/s 194.69 Deg 246.85 µg/m3
2021-11-23 08:00 92.7 µg/m3 0 µg/m3 35.57 µg/m3 18.6 µg/m3 0 mg/m3 15.99 °C 87.92 % 1,011.49 mbar 1.65 m/s 200.28 Deg 263.36 µg/m3
2021-11-23 07:00 81.1 µg/m3 0 µg/m3 24.34 µg/m3 12.63 µg/m3 0 mg/m3 16.31 °C 85.89 % 1,011.03 mbar 0.56 m/s 201.35 Deg 163.87 µg/m3
2021-11-23 06:00 66.99 µg/m3 0 µg/m3 20.92 µg/m3 10.56 µg/m3 0 mg/m3 16.26 °C 83.76 % 1,010.89 mbar 0.27 m/s 159.65 Deg 96.89 µg/m3
2021-11-23 05:00 56.19 µg/m3 0 µg/m3 18.85 µg/m3 9.43 µg/m3 0 mg/m3 16.24 °C 83.13 % 1,010.85 mbar 1.09 m/s 218.63 Deg 29.82 µg/m3
2021-11-23 04:00 40.39 µg/m3 0 µg/m3 16.14 µg/m3 8.55 µg/m3 0 mg/m3 16.13 °C 83.1 % 1,010.77 mbar 2.8 m/s 201.78 Deg 11.69 µg/m3
2021-11-23 03:00 42.36 µg/m3 0 µg/m3 16.38 µg/m3 8.65 µg/m3 0 mg/m3 16.27 °C 83.8 % 1,011.01 mbar 1.98 m/s 201.41 Deg 5.87 µg/m3
2021-11-23 02:00 61.59 µg/m3 0 µg/m3 20.34 µg/m3 11.55 µg/m3 0 mg/m3 16.42 °C 84.27 % 1,011.24 mbar 1.47 m/s 192.98 Deg 53.34 µg/m3
2021-11-23 01:00 63.57 µg/m3 0 µg/m3 19.22 µg/m3 10.63 µg/m3 0 mg/m3 16.81 °C 83.92 % 1,011.25 mbar 1.21 m/s 204.7 Deg 77.94 µg/m3
2021-11-23 00:00 65.88 µg/m3 0 µg/m3 18.64 µg/m3 10.13 µg/m3 0 mg/m3 17.22 °C 82.4 % 1,011.07 mbar 1.56 m/s 198.95 Deg 43.48 µg/m3
2021-11-22 23:00 72.07 µg/m3 0 µg/m3 19.61 µg/m3 10.68 µg/m3 0 mg/m3 17.29 °C 82.67 % 1,010.98 mbar 1.45 m/s 194.49 Deg 43.67 µg/m3
2021-11-22 22:00 70.47 µg/m3 0 µg/m3 18.03 µg/m3 8.95 µg/m3 0 mg/m3 17.57 °C 82.45 % 1,010.63 mbar 0.51 m/s 207.47 Deg 36.24 µg/m3
2021-11-22 21:00 75.5 µg/m3 0 µg/m3 19.62 µg/m3 10.39 µg/m3 0 mg/m3 17.95 °C 81.88 % 1,010.31 mbar 1.81 m/s 193.07 Deg 69.41 µg/m3
2021-11-22 20:00 77.16 µg/m3 0 µg/m3 25.88 µg/m3 13.51 µg/m3 0 mg/m3 18.38 °C 82.12 % 1,010.08 mbar 1.22 m/s 188.64 Deg 58.32 µg/m3
2021-11-22 19:00 87.03 µg/m3 0 µg/m3 32.66 µg/m3 15.91 µg/m3 0 mg/m3 19.01 °C 79.25 % 1,009.66 mbar 0.85 m/s 191.47 Deg 79.27 µg/m3
2021-11-22 18:00 74.94 µg/m3 0 µg/m3 25.39 µg/m3 11.76 µg/m3 0 mg/m3 19.63 °C 74.22 % 1,009.24 mbar 1.03 m/s 193.82 Deg 29.27 µg/m3
2021-11-22 17:00 43.97 µg/m3 0 µg/m3 18.55 µg/m3 8.68 µg/m3 0 mg/m3 20.22 °C 70.97 % 1,008.79 mbar 2.89 m/s 211.38 Deg 8.27 µg/m3
2021-11-22 16:00 27.49 µg/m3 0 µg/m3 14.62 µg/m3 6.96 µg/m3 0 mg/m3 20.4 °C 72.08 % 1,008.50 mbar 4.48 m/s 203.24 Deg 5.27 µg/m3
2021-11-22 15:00 25.27 µg/m3 0 µg/m3 13.87 µg/m3 6.41 µg/m3 0 mg/m3 20.58 °C 71.35 % 1,008.45 mbar 5.42 m/s 202.78 Deg 7.99 µg/m3
2021-11-22 14:00 36.35 µg/m3 0 µg/m3 16.01 µg/m3 7.12 µg/m3 0 mg/m3 20.44 °C 72.96 % 1,008.67 mbar 4.29 m/s 204.04 Deg 14.93 µg/m3
2021-11-22 13:00 53.62 µg/m3 0 µg/m3 16.05 µg/m3 7.46 µg/m3 0 mg/m3 20.38 °C 72.99 % 1,009.24 mbar 5.16 m/s 196.63 Deg 24.54 µg/m3
2021-11-22 12:00 21.04 µg/m3 0 µg/m3 12.46 µg/m3 5.38 µg/m3 0 mg/m3 20.24 °C 71.28 % 1,009.64 mbar 4.21 m/s 227.9 Deg 6.33 µg/m3
2021-11-22 11:00 21.74 µg/m3 0 µg/m3 15.55 µg/m3 6.86 µg/m3 0 mg/m3 18.75 °C 83.43 % 1,010.19 mbar 0.51 m/s 109.72 Deg 4.83 µg/m3
2021-11-22 10:00 54.36 µg/m3 0 µg/m3 17.6 µg/m3 8.15 µg/m3 0 mg/m3 17.57 °C 87.02 % 1,010.50 mbar 0.16 m/s 170.69 Deg 34.64 µg/m3
2021-11-22 09:00 26.65 µg/m3 0 µg/m3 14.58 µg/m3 6.51 µg/m3 0 mg/m3 16.13 °C 88.26 % 1,010.10 mbar 0.27 m/s 160.77 Deg 4.19 µg/m3
2021-11-22 08:00 28.74 µg/m3 0 µg/m3 13.47 µg/m3 6.02 µg/m3 0 mg/m3 15.77 °C 86.8 % 1,009.75 mbar 0.83 m/s 290.02 Deg 1.89 µg/m3
2021-11-22 07:00 30.74 µg/m3 0 µg/m3 13.39 µg/m3 6.02 µg/m3 0 mg/m3 17.23 °C 78.61 % 1,009.42 mbar 1.44 m/s 258.34 Deg 15 µg/m3
2021-11-22 06:00 16.5 µg/m3 0 µg/m3 12.11 µg/m3 5.23 µg/m3 0 mg/m3 17.45 °C 80.09 % 1,009.11 mbar 1.14 m/s 311.88 Deg 2.02 µg/m3
2021-11-22 05:00 18.09 µg/m3 0 µg/m3 12.9 µg/m3 5.55 µg/m3 0 mg/m3 17.53 °C 74.49 % 1,009.00 mbar 1.35 m/s 295.72 Deg 4.87 µg/m3
2021-11-22 04:00 15.95 µg/m3 0 µg/m3 10.97 µg/m3 4.84 µg/m3 0 mg/m3 18.05 °C 78.1 % 1,009.11 mbar 1.45 m/s 267.53 Deg 1.4 µg/m3
2021-11-22 03:00 61.19 µg/m3 0 µg/m3 11.66 µg/m3 5.5 µg/m3 0 mg/m3 17.94 °C 80.49 % 1,009.90 mbar 1.16 m/s 175.78 Deg 12.63 µg/m3
2021-11-22 02:00 60.4 µg/m3 0 µg/m3 12.01 µg/m3 5.75 µg/m3 0 mg/m3 17.95 °C 80.78 % 1,010.45 mbar 0.87 m/s 223.44 Deg 16.78 µg/m3
2021-11-22 01:00 21.53 µg/m3 0 µg/m3 11.77 µg/m3 5.46 µg/m3 0 mg/m3 18.09 °C 80.26 % 1,010.98 mbar 1.72 m/s 189.19 Deg 10.23 µg/m3
2021-11-22 00:00 53.09 µg/m3 0 µg/m3 13.17 µg/m3 6.43 µg/m3 0 mg/m3 18.38 °C 76.58 % 1,011.56 mbar 1.65 m/s 188.68 Deg 22.02 µg/m3
2021-11-21 23:00 62.89 µg/m3 0 µg/m3 15.65 µg/m3 8.1 µg/m3 0 mg/m3 17.91 °C 75.55 % 1,011.85 mbar 1.37 m/s 191.73 Deg 18.38 µg/m3
2021-11-21 22:00 46.69 µg/m3 0 µg/m3 15.75 µg/m3 8.02 µg/m3 0 mg/m3 17.98 °C 71.89 % 1,011.84 mbar 1.16 m/s 195.41 Deg 7.09 µg/m3
2021-11-21 21:00 55.77 µg/m3 0 µg/m3 16.58 µg/m3 7.99 µg/m3 0 mg/m3 17.65 °C 70.71 % 1,012.22 mbar 1.13 m/s 187.73 Deg 7.19 µg/m3
2021-11-21 20:00 55.52 µg/m3 0 µg/m3 18.31 µg/m3 9.36 µg/m3 0 mg/m3 17.84 °C 71.01 % 1,012.40 mbar 1.27 m/s 192.14 Deg 4.07 µg/m3
2021-11-21 19:00 49.53 µg/m3 0 µg/m3 17.61 µg/m3 8.6 µg/m3 0 mg/m3 18.29 °C 70.68 % 1,012.08 mbar 0.88 m/s 189.95 Deg 14.56 µg/m3
2021-11-21 18:00 21.53 µg/m3 0 µg/m3 13.62 µg/m3 6.43 µg/m3 0 mg/m3 18.5 °C 68.28 % 1,012.14 mbar 2.45 m/s 208.67 Deg 0.87 µg/m3
2021-11-21 17:00 9.96 µg/m3 0 µg/m3 11.54 µg/m3 5.19 µg/m3 0 mg/m3 18.82 °C 65.47 % 1,012.19 mbar 3.74 m/s 213.76 Deg 1.44 µg/m3
2021-11-21 16:00 5.73 µg/m3 0 µg/m3 10.81 µg/m3 4.75 µg/m3 0 mg/m3 19.25 °C 65.84 % 1,012.38 mbar 4.77 m/s 222.85 Deg 1.4 µg/m3
2021-11-21 15:00 4.13 µg/m3 0 µg/m3 10.88 µg/m3 4.77 µg/m3 0 mg/m3 19.51 °C 67.4 % 1,012.55 mbar 4.37 m/s 216.58 Deg 0.86 µg/m3
2021-11-21 14:00 5.67 µg/m3 0 µg/m3 11.58 µg/m3 5.3 µg/m3 0 mg/m3 19.57 °C 68.75 % 1,012.86 mbar 3.64 m/s 221.27 Deg 1.39 µg/m3
2021-11-21 13:00 10.6 µg/m3 0 µg/m3 11.95 µg/m3 5.48 µg/m3 0 mg/m3 19.05 °C 72.55 % 1,013.65 mbar 3.48 m/s 203.33 Deg 1.94 µg/m3
2021-11-21 12:00 14.84 µg/m3 0 µg/m3 12.12 µg/m3 5.3 µg/m3 0 mg/m3 19.64 °C 67.36 % 1,014.32 mbar 3.25 m/s 192.57 Deg 5.1 µg/m3
2021-11-21 11:00 14.45 µg/m3 0 µg/m3 12.08 µg/m3 5.35 µg/m3 0 mg/m3 19.22 °C 67.73 % 1,014.91 mbar 2.78 m/s 204.78 Deg 3.39 µg/m3
2021-11-21 10:00 72.44 µg/m3 0 µg/m3 25.65 µg/m3 13.35 µg/m3 0 mg/m3 17.75 °C 76.94 % 1,015.15 mbar 0.54 m/s 190.71 Deg 59.37 µg/m3
2021-11-21 09:00 70.29 µg/m3 0 µg/m3 29.85 µg/m3 15.48 µg/m3 0 mg/m3 15.35 °C 85.27 % 1,015.39 mbar 1.38 m/s 197.35 Deg 101.03 µg/m3
2021-11-21 08:00 59.12 µg/m3 0 µg/m3 27.51 µg/m3 14.29 µg/m3 0 mg/m3 13.94 °C 89.11 % 1,015.45 mbar 1.91 m/s 199.38 Deg 128.85 µg/m3
2021-11-21 07:00 51.65 µg/m3 0 µg/m3 23.34 µg/m3 12.31 µg/m3 0 mg/m3 13.97 °C 91.44 % 1,015.37 mbar 2.04 m/s 202.03 Deg 55.31 µg/m3
2021-11-21 06:00 41.9 µg/m3 0 µg/m3 25.43 µg/m3 13.84 µg/m3 0 mg/m3 13.95 °C 90.58 % 1,015.39 mbar 2.18 m/s 199.98 Deg 21.21 µg/m3
2021-11-21 05:00 37.66 µg/m3 0 µg/m3 20.18 µg/m3 10.87 µg/m3 0 mg/m3 14.02 °C 90.56 % 1,015.51 mbar 1.9 m/s 202.12 Deg 14.1 µg/m3
2021-11-21 04:00 39.4 µg/m3 0 µg/m3 18.89 µg/m3 10.55 µg/m3 0 mg/m3 14.19 °C 90.76 % 1,015.67 mbar 1.84 m/s 204.42 Deg 9.12 µg/m3
2021-11-21 03:00 38.23 µg/m3 0 µg/m3 20.04 µg/m3 11.12 µg/m3 0 mg/m3 14.28 °C 89.17 % 1,016.17 mbar 1.98 m/s 201.81 Deg 8.97 µg/m3
2021-11-21 02:00 42.69 µg/m3 0 µg/m3 20.84 µg/m3 11.85 µg/m3 0 mg/m3 14.33 °C 88.5 % 1,016.78 mbar 2.15 m/s 197.26 Deg 10.2 µg/m3
2021-11-21 01:00 49.08 µg/m3 0 µg/m3 23.21 µg/m3 13.23 µg/m3 0 mg/m3 14.68 °C 86.92 % 1,017.35 mbar 2.05 m/s 201.39 Deg 15.64 µg/m3
2021-11-21 00:00 47.87 µg/m3 0 µg/m3 24.71 µg/m3 14.5 µg/m3 0 mg/m3 14.97 °C 85.5 % 1,017.75 mbar 1.82 m/s 203.36 Deg 12.41 µg/m3
2021-11-20 23:00 53.41 µg/m3 0 µg/m3 27.84 µg/m3 16.43 µg/m3 0 mg/m3 15.16 °C 84.22 % 1,017.91 mbar 1.99 m/s 201.64 Deg 15.16 µg/m3
2021-11-20 22:00 61.15 µg/m3 0 µg/m3 32.52 µg/m3 18.57 µg/m3 0 mg/m3 15.53 °C 82.52 % 1,017.96 mbar 1.89 m/s 200.19 Deg 32.37 µg/m3
2021-11-20 21:00 66.56 µg/m3 0 µg/m3 31.45 µg/m3 17.66 µg/m3 0 mg/m3 16.15 °C 79.15 % 1,018.06 mbar 1.91 m/s 199.38 Deg 32.23 µg/m3
2021-11-20 20:00 65.03 µg/m3 0 µg/m3 25.62 µg/m3 12.98 µg/m3 0 mg/m3 16.78 °C 75.31 % 1,017.99 mbar 2.44 m/s 200.91 Deg 10.05 µg/m3
2021-11-20 19:00 45.85 µg/m3 0 µg/m3 17.01 µg/m3 8.28 µg/m3 0 mg/m3 18.07 °C 67.5 % 1,018.00 mbar 1.51 m/s 252.63 Deg 13.47 µg/m3
2021-11-20 18:00 29.23 µg/m3 0 µg/m3 15.45 µg/m3 6.5 µg/m3 0 mg/m3 18.43 °C 65.97 % 1,018.18 mbar 1.27 m/s 278.3 Deg 4.42 µg/m3
2021-11-20 17:00 12.21 µg/m3 0 µg/m3 12.8 µg/m3 5.27 µg/m3 0 mg/m3 19.02 °C 62.38 % 1,018.27 mbar 1.71 m/s 286.39 Deg 2.24 µg/m3
2021-11-20 16:00 8.21 µg/m3 0 µg/m3 13.15 µg/m3 4.96 µg/m3 0 mg/m3 19.75 °C 59.8 % 1,018.32 mbar 1.21 m/s 313.8 Deg 1.74 µg/m3
2021-11-20 15:00 20.76 µg/m3 0 µg/m3 13.69 µg/m3 5.03 µg/m3 0 mg/m3 19.82 °C 61.33 % 1,018.53 mbar 1.47 m/s 338.36 Deg 13.17 µg/m3
2021-11-20 14:00 6.06 µg/m3 0 µg/m3 12.79 µg/m3 4.95 µg/m3 0 mg/m3 19.8 °C 60.07 % 1,018.96 mbar 1.51 m/s 326.21 Deg 1.82 µg/m3
2021-11-20 13:00 10.84 µg/m3 0 µg/m3 29.64 µg/m3 6.82 µg/m3 0 mg/m3 19.84 °C 61.19 % 1,019.51 mbar 1.4 m/s 326.38 Deg 4.67 µg/m3
2021-11-20 12:00 7.66 µg/m3 0 µg/m3 17.31 µg/m3 5.14 µg/m3 0 mg/m3 19.4 °C 65.65 % 1,020.32 mbar 1.55 m/s 348.73 Deg 2.63 µg/m3
2021-11-20 11:00 14.08 µg/m3 0 µg/m3 16.32 µg/m3 6.13 µg/m3 0 mg/m3 18.94 °C 73.95 % 1,020.90 mbar 1.37 m/s 306.8 Deg 3.22 µg/m3
2021-11-20 10:00 36.97 µg/m3 0 µg/m3 19.49 µg/m3 9.45 µg/m3 0 mg/m3 18.38 °C 78.82 % 1,021.04 mbar 1.52 m/s 268.53 Deg 19.68 µg/m3
2021-11-20 09:00 67.04 µg/m3 0 µg/m3 33.39 µg/m3 17.85 µg/m3 0 mg/m3 15.81 °C 86.19 % 1,020.96 mbar 2.16 m/s 195.69 Deg 66.66 µg/m3
2021-11-20 08:00 58.28 µg/m3 0 µg/m3 27.63 µg/m3 15.29 µg/m3 0 mg/m3 14.42 °C 89.55 % 1,020.89 mbar 2.4 m/s 200.18 Deg 64.52 µg/m3
2021-11-20 07:00 44.84 µg/m3 0 µg/m3 25.64 µg/m3 14.15 µg/m3 0 mg/m3 14.22 °C 89.9 % 1,020.84 mbar 2.44 m/s 200.32 Deg 28.07 µg/m3
2021-11-20 06:00 32.51 µg/m3 0 µg/m3 22.31 µg/m3 12.78 µg/m3 0 mg/m3 14.47 °C 89.37 % 1,020.63 mbar 2.1 m/s 201.65 Deg 5.18 µg/m3
2021-11-20 05:00 36.3 µg/m3 0 µg/m3 21.73 µg/m3 12.73 µg/m3 0 mg/m3 14.64 °C 88.59 % 1,020.76 mbar 2.31 m/s 201.27 Deg 4.06 µg/m3
2021-11-20 04:00 39.79 µg/m3 0 µg/m3 22.15 µg/m3 12.97 µg/m3 0 mg/m3 14.62 °C 89.31 % 1,021.08 mbar 2.37 m/s 195.53 Deg 13.34 µg/m3
2021-11-20 03:00 42.19 µg/m3 0 µg/m3 22.76 µg/m3 13.22 µg/m3 0 mg/m3 14.91 °C 88.85 % 1,021.52 mbar 2.32 m/s 198.74 Deg 9.49 µg/m3
2021-11-20 02:00 48.48 µg/m3 0 µg/m3 23.04 µg/m3 13.24 µg/m3 0 mg/m3 15.25 °C 87.75 % 1,021.88 mbar 2.21 m/s 199.11 Deg 16.73 µg/m3
2021-11-20 01:00 54.05 µg/m3 0 µg/m3 24.58 µg/m3 14.05 µg/m3 0 mg/m3 15.68 °C 86.82 % 1,022.02 mbar 2.15 m/s 195.89 Deg 30.73 µg/m3
2021-11-20 00:00 59.25 µg/m3 0 µg/m3 26.31 µg/m3 14.69 µg/m3 0 mg/m3 16.23 °C 86.13 % 1,022.27 mbar 2.05 m/s 198.71 Deg 62.43 µg/m3
2021-11-19 23:00 67.27 µg/m3 0 µg/m3 27.94 µg/m3 14.78 µg/m3 0 mg/m3 16.95 °C 83.98 % 1,022.32 mbar 1.5 m/s 200.4 Deg 70.03 µg/m3
2021-11-19 22:00 78.08 µg/m3 0 µg/m3 21.45 µg/m3 10.99 µg/m3 0 mg/m3 18.02 °C 76.72 % 1,022.13 mbar 0.84 m/s 245.8 Deg 60.65 µg/m3
2021-11-19 21:00 37.34 µg/m3 0 µg/m3 14.14 µg/m3 6.48 µg/m3 0 mg/m3 18.26 °C 73.85 % 1,021.79 mbar 0.35 m/s 201.11 Deg 3.62 µg/m3
2021-11-19 20:00 31.6 µg/m3 0 µg/m3 14.47 µg/m3 6.48 µg/m3 0 mg/m3 18.48 °C 72.78 % 1,021.78 mbar 0.75 m/s 256.83 Deg 3.97 µg/m3
2021-11-19 19:00 9.78 µg/m3 0 µg/m3 12.74 µg/m3 5.54 µg/m3 0 mg/m3 18.61 °C 73.11 % 1,021.55 mbar 0.94 m/s 220.03 Deg 1.54 µg/m3
2021-11-19 18:00 8.29 µg/m3 0 µg/m3 12.15 µg/m3 4.98 µg/m3 0 mg/m3 18.61 °C 73.45 % 1,362.63 mbar 0.9 m/s 303.79 Deg 1.24 µg/m3
2021-11-19 17:00 5.84 µg/m3 0 µg/m3 12.12 µg/m3 4.85 µg/m3 0 mg/m3 19.16 °C 72.35 % 1,020.92 mbar 0.98 m/s 285.6 Deg 1.84 µg/m3
2021-11-19 16:00 8.22 µg/m3 0 µg/m3 12.12 µg/m3 4.73 µg/m3 0 mg/m3 19.57 °C 71.74 % 1,020.98 mbar 0.98 m/s 238.84 Deg 2.08 µg/m3
2021-11-19 15:00 6.48 µg/m3 0 µg/m3 12.47 µg/m3 5.1 µg/m3 0 mg/m3 19.28 °C 74 % 1,020.80 mbar 1.11 m/s 294.81 Deg 1.22 µg/m3
2021-11-19 14:00 5.93 µg/m3 0 µg/m3 13.28 µg/m3 5.41 µg/m3 0 mg/m3 19.49 °C 72.33 % 1,020.78 mbar 1.06 m/s 166.83 Deg 0.97 µg/m3
2021-11-19 13:00 6.23 µg/m3 0 µg/m3 13.25 µg/m3 5.33 µg/m3 0 mg/m3 19.67 °C 71.22 % 1,021.11 mbar 1.16 m/s 239.27 Deg 2 µg/m3
2021-11-19 12:00 8.78 µg/m3 0 µg/m3 13.52 µg/m3 5.72 µg/m3 0 mg/m3 19.44 °C 73.93 % 1,021.62 mbar 1.16 m/s 205.13 Deg 1.33 µg/m3
2021-11-19 11:00 16.53 µg/m3 0 µg/m3 14.88 µg/m3 5.19 µg/m3 0 mg/m3 19.48 °C 70.53 % 1,021.93 mbar 0.76 m/s 239.37 Deg 2.9 µg/m3
2021-11-19 10:00 17.99 µg/m3 0 µg/m3 13.17 µg/m3 4.73 µg/m3 0 mg/m3 18.75 °C 72.63 % 1,021.90 mbar 0.74 m/s 251.17 Deg 4.57 µg/m3
2021-11-19 09:00 90.22 µg/m3 0 µg/m3 38.81 µg/m3 19.08 µg/m3 0 mg/m3 16.99 °C 82.28 % 1,021.65 mbar 0.95 m/s 230.16 Deg 127.19 µg/m3
2021-11-19 08:00 89.2 µg/m3 0 µg/m3 27.75 µg/m3 13.4 µg/m3 0 mg/m3 15.85 °C 87.19 % 1,021.21 mbar 1.74 m/s 197.31 Deg 169.58 µg/m3
2021-11-19 07:00 72.46 µg/m3 0 µg/m3 17.68 µg/m3 8.17 µg/m3 0 mg/m3 15.93 °C 87.13 % 1,020.71 mbar 1.21 m/s 197.45 Deg 61.34 µg/m3
2021-11-19 06:00 63.22 µg/m3 0 µg/m3 15.01 µg/m3 7.28 µg/m3 0 mg/m3 15.78 °C 87.61 % 1,020.39 mbar 2.05 m/s 200.21 Deg 32.65 µg/m3
2021-11-19 05:00 52.56 µg/m3 0 µg/m3 13.43 µg/m3 6.34 µg/m3 0 mg/m3 15.81 °C 87.72 % 1,020.25 mbar 2.13 m/s 202.17 Deg 7.43 µg/m3
2021-11-19 04:00 43.95 µg/m3 0 µg/m3 14.21 µg/m3 7 µg/m3 0 mg/m3 16.06 °C 86.71 % 1,020.25 mbar 2.02 m/s 202.12 Deg 3.34 µg/m3
2021-11-19 03:00 40.24 µg/m3 0 µg/m3 13.99 µg/m3 6.94 µg/m3 0 mg/m3 16.1 °C 87.85 % 1,020.47 mbar 2.26 m/s 208.68 Deg 4.73 µg/m3
2021-11-19 02:00 47.34 µg/m3 0 µg/m3 16.25 µg/m3 8.63 µg/m3 0 mg/m3 15.96 °C 88.55 % 1,020.61 mbar 2.17 m/s 204.28 Deg 11.51 µg/m3
2021-11-19 01:00 59.98 µg/m3 0 µg/m3 16.63 µg/m3 8.72 µg/m3 0 mg/m3 16.3 °C 87.46 % 1,020.73 mbar 2.06 m/s 202.68 Deg 26.39 µg/m3
2021-11-19 00:00 57.15 µg/m3 0 µg/m3 16.62 µg/m3 8.7 µg/m3 0 mg/m3 16.46 °C 85.72 % 1,020.83 mbar 2.32 m/s 196.61 Deg 33.03 µg/m3
2021-11-18 23:00 51.43 µg/m3 0 µg/m3 16.49 µg/m3 8.47 µg/m3 0 mg/m3 16.7 °C 84.14 % 1,020.94 mbar 2.64 m/s 202 Deg 8.22 µg/m3
2021-11-18 22:00 65.7 µg/m3 0 µg/m3 19.17 µg/m3 9.78 µg/m3 0 mg/m3 16.95 °C 82.44 % 1,020.94 mbar 2.34 m/s 198.33 Deg 16.15 µg/m3
2021-11-18 21:00 72.52 µg/m3 0 µg/m3 18.53 µg/m3 8.87 µg/m3 0 mg/m3 17.8 °C 78.78 % 1,020.61 mbar 2.19 m/s 200.88 Deg 16.75 µg/m3
2021-11-18 20:00 46.71 µg/m3 0 µg/m3 12.54 µg/m3 5.28 µg/m3 0 mg/m3 18.62 °C 74.21 % 1,020.12 mbar 1.76 m/s 252.26 Deg 9.79 µg/m3
2021-11-18 19:00 55.58 µg/m3 0 µg/m3 13.65 µg/m3 5.69 µg/m3 0 mg/m3 18.83 °C 73.24 % 1,019.87 mbar 1.75 m/s 256.61 Deg 16.67 µg/m3
2021-11-18 18:00 49.79 µg/m3 0 µg/m3 13.85 µg/m3 5.15 µg/m3 0 mg/m3 19.27 °C 69.5 % 1,019.33 mbar 1.98 m/s 273.6 Deg 14.89 µg/m3
2021-11-18 17:00 40.56 µg/m3 0 µg/m3 13.26 µg/m3 4.87 µg/m3 0 mg/m3 19.86 °C 63.54 % 1,018.82 mbar 2.13 m/s 270.44 Deg 17.39 µg/m3
2021-11-18 16:00 35.32 µg/m3 0 µg/m3 11.71 µg/m3 4.04 µg/m3 0 mg/m3 20.28 °C 61.3 % 1,018.59 mbar 2.7 m/s 258.98 Deg 14.95 µg/m3
2021-11-18 15:00 39.14 µg/m3 0 µg/m3 11.43 µg/m3 4.18 µg/m3 0 mg/m3 20.26 °C 59.67 % 1,018.43 mbar 2.67 m/s 262.13 Deg 26.3 µg/m3
2021-11-18 14:00 26.08 µg/m3 0 µg/m3 10.71 µg/m3 3.77 µg/m3 0 mg/m3 20.16 °C 59.83 % 1,018.46 mbar 2.78 m/s 264.19 Deg 12.91 µg/m3
2021-11-18 13:00 67.29 µg/m3 0 µg/m3 10.61 µg/m3 4.2 µg/m3 0 mg/m3 20.16 °C 62.74 % 1,018.75 mbar 3.93 m/s 214.68 Deg 87.22 µg/m3
2021-11-18 12:00 46.13 µg/m3 0 µg/m3 10.04 µg/m3 3.66 µg/m3 0 mg/m3 20.13 °C 62.4 % 1,019.21 mbar 3.22 m/s 224.08 Deg 39.76 µg/m3
2021-11-18 11:00 48.73 µg/m3 0 µg/m3 10.97 µg/m3 3.84 µg/m3 0 mg/m3 19.87 °C 64.72 % 1,019.28 mbar 2.97 m/s 241.12 Deg 42.82 µg/m3
2021-11-18 10:00 76.89 µg/m3 0 µg/m3 24.62 µg/m3 9.99 µg/m3 0 mg/m3 19.15 °C 69.02 % 1,018.98 mbar 2.42 m/s 204.43 Deg 74.16 µg/m3
2021-11-18 09:00 110.98 µg/m3 0 µg/m3 37.55 µg/m3 17.52 µg/m3 0 mg/m3 17.35 °C 77.06 % 1,018.56 mbar 0.84 m/s 167.06 Deg 171.21 µg/m3
2021-11-18 08:00 89.26 µg/m3 0 µg/m3 28.7 µg/m3 14.08 µg/m3 0 mg/m3 15.61 °C 83.71 % 1,018.21 mbar 1.93 m/s 200.05 Deg 166.15 µg/m3
2021-11-18 07:00 71.82 µg/m3 0 µg/m3 20.85 µg/m3 10.27 µg/m3 0 mg/m3 15.25 °C 85.12 % 1,017.57 mbar 2.5 m/s 199.04 Deg 76.63 µg/m3
2021-11-18 06:00 70.23 µg/m3 0 µg/m3 21.82 µg/m3 11.6 µg/m3 0 mg/m3 15.33 °C 84.04 % 1,016.80 mbar 2.08 m/s 197.46 Deg 63.57 µg/m3
2021-11-18 05:00 65.98 µg/m3 0 µg/m3 15.73 µg/m3 7.51 µg/m3 0 mg/m3 15.51 °C 84.5 % 1,016.48 mbar 2.28 m/s 201.14 Deg 47.99 µg/m3
2021-11-18 04:00 64.95 µg/m3 0 µg/m3 15.75 µg/m3 7.76 µg/m3 0 mg/m3 15.73 °C 83.33 % 1,016.30 mbar 1.12 m/s 196.91 Deg 44.22 µg/m3
2021-11-18 03:00 29.96 µg/m3 0 µg/m3 13.92 µg/m3 6.69 µg/m3 0 mg/m3 15.92 °C 81.69 % 1,016.30 mbar 1.73 m/s 198.48 Deg 0.85 µg/m3
2021-11-18 02:00 36.6 µg/m3 0 µg/m3 14.11 µg/m3 6.94 µg/m3 0 mg/m3 16.04 °C 80.94 % 1,016.22 mbar 2.27 m/s 200.23 Deg 1.39 µg/m3
2021-11-18 01:00 52.38 µg/m3 0 µg/m3 15.97 µg/m3 8.21 µg/m3 0 mg/m3 16.16 °C 80.68 % 1,016.11 mbar 2.37 m/s 202.77 Deg 5.09 µg/m3
2021-11-18 00:00 64.68 µg/m3 0 µg/m3 15.86 µg/m3 7.94 µg/m3 0 mg/m3 16.71 °C 78.69 % 1,016.08 mbar 2.2 m/s 201.9 Deg 13.09 µg/m3
2021-11-17 23:00 68.25 µg/m3 0 µg/m3 16.82 µg/m3 8.28 µg/m3 0 mg/m3 16.96 °C 78.71 % 1,015.67 mbar 2.1 m/s 200.28 Deg 20.03 µg/m3
2021-11-17 22:00 63.98 µg/m3 0 µg/m3 17.95 µg/m3 8.42 µg/m3 0 mg/m3 17.52 °C 76.26 % 1,015.24 mbar 2.06 m/s 198.6 Deg 9.25 µg/m3
2021-11-17 21:00 76.7 µg/m3 0 µg/m3 21.84 µg/m3 9.31 µg/m3 0 mg/m3 18.23 °C 73.55 % 1,014.75 mbar 2.07 m/s 199.71 Deg 11.88 µg/m3
2021-11-17 20:00 74.02 µg/m3 0 µg/m3 24.46 µg/m3 8.86 µg/m3 0 mg/m3 18.74 °C 70.42 % 1,014.12 mbar 1.72 m/s 204.43 Deg 8.82 µg/m3
2021-11-17 19:00 51.46 µg/m3 0 µg/m3 19.35 µg/m3 6.96 µg/m3 0 mg/m3 19.15 °C 67.17 % 1,013.54 mbar 1.99 m/s 207.84 Deg 3.8 µg/m3
2021-11-17 18:00 27.49 µg/m3 0 µg/m3 15.6 µg/m3 5.84 µg/m3 0 mg/m3 19.59 °C 65.86 % 1,012.55 mbar 2.42 m/s 247.36 Deg 1.37 µg/m3
2021-11-17 17:00 26.73 µg/m3 0 µg/m3 14.78 µg/m3 5.63 µg/m3 0 mg/m3 20.03 °C 64.86 % 1,011.83 mbar 3.68 m/s 225.13 Deg 3.24 µg/m3
2021-11-17 16:00 14.79 µg/m3 0 µg/m3 10.92 µg/m3 3.83 µg/m3 0 mg/m3 20.35 °C 61.1 % 1,011.52 mbar 5.87 m/s 209.19 Deg 4.05 µg/m3
2021-11-17 15:00 12.24 µg/m3 0 µg/m3 10.53 µg/m3 3.67 µg/m3 0 mg/m3 20.36 °C 62.63 % 1,011.23 mbar 6.91 m/s 209.59 Deg 6.88 µg/m3
2021-11-17 14:00 12.39 µg/m3 0 µg/m3 12.86 µg/m3 3.86 µg/m3 0 mg/m3 20.38 °C 63.06 % 1,011.03 mbar 7.17 m/s 204.38 Deg 3.52 µg/m3
2021-11-17 13:00 14.4 µg/m3 0 µg/m3 14.41 µg/m3 4.44 µg/m3 0 mg/m3 20.53 °C 64.85 % 1,011.10 mbar 7.79 m/s 199.31 Deg 4.39 µg/m3
2021-11-17 12:00 19.35 µg/m3 0 µg/m3 23.39 µg/m3 6.18 µg/m3 0 mg/m3 20.6 °C 66.69 % 1,011.41 mbar 6.89 m/s 195.98 Deg 9.25 µg/m3
2021-11-17 11:00 22.72 µg/m3 0.59 µg/m3 26.38 µg/m3 7.73 µg/m3 0 mg/m3 20.72 °C 64.65 % 1,011.31 mbar 6.34 m/s 201.48 Deg 9.44 µg/m3
2021-11-17 10:00 20.78 µg/m3 0.52 µg/m3 21.13 µg/m3 7.1 µg/m3 0 mg/m3 20.8 °C 66.95 % 1,010.64 mbar 6.63 m/s 197.21 Deg 5.8 µg/m3
2021-11-17 09:00 36.41 µg/m3 0.58 µg/m3 20.07 µg/m3 8.44 µg/m3 0 mg/m3 20.53 °C 75.42 % 1,010.15 mbar 5.48 m/s 203.55 Deg 10.04 µg/m3
2021-11-17 08:00 41.14 µg/m3 0.65 µg/m3 25.11 µg/m3 9.92 µg/m3 0 mg/m3 21.22 °C 74.69 % 1,009.53 mbar 3.91 m/s 185.88 Deg 11.38 µg/m3
2021-11-17 07:00 60.44 µg/m3 0.91 µg/m3 24.55 µg/m3 9.15 µg/m3 0 mg/m3 21.98 °C 63.95 % 1,008.99 mbar 4.15 m/s 175.38 Deg 52.84 µg/m3
2021-11-17 06:00 63.85 µg/m3 0.69 µg/m3 20 µg/m3 9.12 µg/m3 0 mg/m3 21.56 °C 75.01 % 1,008.75 mbar 3.36 m/s 171.08 Deg 42.23 µg/m3
2021-11-17 05:00 45.76 µg/m3 0.43 µg/m3 18.04 µg/m3 7.6 µg/m3 0 mg/m3 21.51 °C 75.26 % 1,008.73 mbar 3.14 m/s 176.32 Deg 15.93 µg/m3
2021-11-17 04:00 31.81 µg/m3 0.32 µg/m3 18.73 µg/m3 7.37 µg/m3 0 mg/m3 21.19 °C 74.63 % 1,009.18 mbar 2.04 m/s 172.17 Deg 3.36 µg/m3
2021-11-17 03:00 15.12 µg/m3 0.28 µg/m3 16.99 µg/m3 6.3 µg/m3 0 mg/m3 20.78 °C 74.81 % 1,009.62 mbar 1.19 m/s 172.92 Deg 1.16 µg/m3
2021-11-17 02:00 1.28 µg/m3 0.23 µg/m3 15.21 µg/m3 6.25 µg/m3 0 mg/m3 20.33 °C 77.42 % 1,009.69 mbar 0.73 m/s 303.98 Deg 0.55 µg/m3
2021-11-17 01:00 1.19 µg/m3 0.23 µg/m3 16.84 µg/m3 5.84 µg/m3 0 mg/m3 20.3 °C 75.08 % 1,010.07 mbar 0.79 m/s 182.86 Deg 0.3 µg/m3
2021-11-17 00:00 2.95 µg/m3 0.3 µg/m3 15.17 µg/m3 6.12 µg/m3 0 mg/m3 20.28 °C 76.13 % 1,010.72 mbar 0.73 m/s 261.33 Deg 1.04 µg/m3
2021-11-16 23:00 7.67 µg/m3 0.28 µg/m3 17.27 µg/m3 7.22 µg/m3 0 mg/m3 20.33 °C 78.01 % 1,010.91 mbar 0.57 m/s 304.83 Deg 0.87 µg/m3
2021-11-16 22:00 27.15 µg/m3 0.4 µg/m3 17.32 µg/m3 7.29 µg/m3 0 mg/m3 20.24 °C 78.45 % 1,010.86 mbar 0.5 m/s 218.63 Deg 3.92 µg/m3
2021-11-16 21:00 24.72 µg/m3 0.47 µg/m3 18.8 µg/m3 8.04 µg/m3 0 mg/m3 20.12 °C 79 % 1,010.53 mbar 0.31 m/s 284.66 Deg 4.71 µg/m3
2021-11-16 20:00 48.01 µg/m3 0.65 µg/m3 20.91 µg/m3 8.12 µg/m3 0 mg/m3 20.5 °C 76.01 % 1,010.26 mbar 0.88 m/s 202.72 Deg 8.24 µg/m3
2021-11-16 19:00 69.09 µg/m3 0.8 µg/m3 21.66 µg/m3 8.45 µg/m3 0 mg/m3 20.93 °C 74.33 % 1,010.22 mbar 1.65 m/s 171.97 Deg 17.66 µg/m3
2021-11-16 18:00 85.06 µg/m3 1.31 µg/m3 24.32 µg/m3 9.61 µg/m3 0 mg/m3 21.42 °C 72.69 % 1,010.43 mbar 2 m/s 174.53 Deg 62.46 µg/m3
2021-11-16 17:00 83.43 µg/m3 1.57 µg/m3 25.01 µg/m3 9.43 µg/m3 0 mg/m3 22.05 °C 68.87 % 1,010.57 mbar 2.42 m/s 174.29 Deg 70.7 µg/m3
2021-11-16 16:00 69.3 µg/m3 1.21 µg/m3 22.83 µg/m3 8.91 µg/m3 0 mg/m3 22.38 °C 69.21 % 1,010.74 mbar 3.22 m/s 173.9 Deg 55.54 µg/m3
2021-11-16 15:00 70.87 µg/m3 1.24 µg/m3 24.05 µg/m3 8.53 µg/m3 0 mg/m3 22.94 °C 66.51 % 1,010.56 mbar 2.39 m/s 176.7 Deg 68.65 µg/m3
2021-11-16 14:00 35.34 µg/m3 0.59 µg/m3 21.4 µg/m3 6.98 µg/m3 0 mg/m3 23.1 °C 66.17 % 1,010.50 mbar 1.95 m/s 170.03 Deg 8.14 µg/m3
2021-11-16 13:00 24.33 µg/m3 0.53 µg/m3 19.19 µg/m3 6.25 µg/m3 0 mg/m3 23.29 °C 66.73 % 1,010.77 mbar 1.54 m/s 187.02 Deg 5.19 µg/m3
2021-11-16 12:00 30.35 µg/m3 0.65 µg/m3 19.86 µg/m3 5.86 µg/m3 0 mg/m3 22.81 °C 65.86 % 1,011.23 mbar 2.03 m/s 177.61 Deg 7.28 µg/m3
2021-11-16 11:00 51.08 µg/m3 0.91 µg/m3 19.48 µg/m3 6.15 µg/m3 0 mg/m3 21.83 °C 66.59 % 1,011.70 mbar 2.68 m/s 177.95 Deg 22.41 µg/m3
2021-11-16 10:00 46.21 µg/m3 0.78 µg/m3 17.26 µg/m3 5.57 µg/m3 0 mg/m3 21.04 °C 68.21 % 1,011.80 mbar 2.43 m/s 174.03 Deg 13.07 µg/m3
2021-11-16 09:00 40.96 µg/m3 0.74 µg/m3 16.74 µg/m3 6.01 µg/m3 0 mg/m3 19.95 °C 74.15 % 1,011.58 mbar 1.21 m/s 219.94 Deg 8.88 µg/m3
2021-11-16 08:00 78.1 µg/m3 1.63 µg/m3 23.03 µg/m3 10.4 µg/m3 0 mg/m3 18.37 °C 81.42 % 1,011.13 mbar 0.38 m/s 239.57 Deg 88.76 µg/m3
2021-11-16 07:00 60.14 µg/m3 2.24 µg/m3 29.4 µg/m3 14.71 µg/m3 0 mg/m3 16.33 °C 90.37 % 1,010.59 mbar 0.63 m/s 161.73 Deg 147.17 µg/m3
2021-11-16 06:00 47.44 µg/m3 1.76 µg/m3 31.41 µg/m3 16.22 µg/m3 0 mg/m3 15.85 °C 91.85 % 1,010.37 mbar 1.03 m/s 194.77 Deg 117.25 µg/m3
2021-11-16 05:00 41.1 µg/m3 1.49 µg/m3 23.68 µg/m3 11.74 µg/m3 0 mg/m3 15.81 °C 91.5 % 1,010.35 mbar 1.11 m/s 194.48 Deg 87.44 µg/m3
2021-11-16 04:00 40.11 µg/m3 1.33 µg/m3 21.91 µg/m3 11.82 µg/m3 0 mg/m3 15.8 °C 91.48 % 1,010.44 mbar 1.25 m/s 198.1 Deg 61.84 µg/m3
2021-11-16 03:00 41.04 µg/m3 1.38 µg/m3 25.2 µg/m3 14.34 µg/m3 0 mg/m3 15.64 °C 91.02 % 1,010.67 mbar 1.56 m/s 201.26 Deg 68.42 µg/m3
2021-11-16 02:00 41.16 µg/m3 1.48 µg/m3 32.76 µg/m3 20.04 µg/m3 0 mg/m3 15.82 °C 91.02 % 1,010.86 mbar 1.59 m/s 200.29 Deg 68.38 µg/m3
2021-11-16 01:00 44.59 µg/m3 1.7 µg/m3 40.35 µg/m3 25.67 µg/m3 0 mg/m3 15.82 °C 91.93 % 1,011.13 mbar 2.22 m/s 203.28 Deg 105.9 µg/m3
2021-11-16 00:00 49.33 µg/m3 1.45 µg/m3 38.04 µg/m3 23.52 µg/m3 0 mg/m3 16.44 °C 92.25 % 1,011.45 mbar 1.55 m/s 201.38 Deg 93.81 µg/m3
2021-11-15 23:00 51.6 µg/m3 1.19 µg/m3 29.01 µg/m3 16.86 µg/m3 0 mg/m3 16.69 °C 91.65 % 1,011.45 mbar 1.98 m/s 199.76 Deg 80.75 µg/m3
2021-11-15 22:00 64.62 µg/m3 1.22 µg/m3 26.4 µg/m3 14.32 µg/m3 0 mg/m3 17.65 °C 89.19 % 1,011.16 mbar 1.66 m/s 212.73 Deg 83.93 µg/m3
2021-11-15 21:00 29.38 µg/m3 0.33 µg/m3 14.75 µg/m3 6.34 µg/m3 0 mg/m3 18.27 °C 85.74 % 1,010.69 mbar 0.04 m/s 174.85 Deg 1.86 µg/m3
2021-11-15 20:00 48.68 µg/m3 0.37 µg/m3 15.36 µg/m3 6.67 µg/m3 0 mg/m3 18.43 °C 84.22 % 1,010.57 mbar 0.25 m/s 165.82 Deg 6.82 µg/m3
2021-11-15 19:00 26.23 µg/m3 0.34 µg/m3 15.38 µg/m3 6.6 µg/m3 0 mg/m3 18.47 °C 83.36 % 1,010.31 mbar 0.2 m/s 94.35 Deg 2.07 µg/m3
2021-11-15 18:00 35.99 µg/m3 0.45 µg/m3 15.65 µg/m3 6.57 µg/m3 0 mg/m3 18.97 °C 80.88 % 1,010.10 mbar 0.22 m/s 291.65 Deg 3.93 µg/m3
2021-11-15 17:00 20.49 µg/m3 0.36 µg/m3 15.33 µg/m3 4.86 µg/m3 0 mg/m3 19.76 °C 76.77 % 1,010.03 mbar 0.42 m/s 310.65 Deg 2.14 µg/m3
2021-11-15 16:00 15.74 µg/m3 0.41 µg/m3 12.26 µg/m3 4.13 µg/m3 0 mg/m3 20.67 °C 72.91 % 1,009.93 mbar 0.64 m/s 159.66 Deg 2.21 µg/m3
2021-11-15 15:00 23.37 µg/m3 0.49 µg/m3 16.9 µg/m3 4.9 µg/m3 0 mg/m3 21.35 °C 69.79 % 1,009.97 mbar 0.62 m/s 295.61 Deg 7.31 µg/m3
2021-11-15 14:00 20.54 µg/m3 0.51 µg/m3 13.82 µg/m3 4.46 µg/m3 0 mg/m3 21.45 °C 69.58 % 1,010.12 mbar 0.79 m/s 275.13 Deg 5.93 µg/m3
2021-11-15 13:00 18.68 µg/m3 0.42 µg/m3 15.14 µg/m3 4.84 µg/m3 0 mg/m3 20.67 °C 72.72 % 1,010.48 mbar 0.52 m/s 232.68 Deg 4.74 µg/m3
2021-11-15 12:00 15.42 µg/m3 0.46 µg/m3 13.02 µg/m3 4.31 µg/m3 0 mg/m3 20.47 °C 75.2 % 1,010.93 mbar 0.55 m/s 168.91 Deg 3.12 µg/m3
2021-11-15 11:00 29.57 µg/m3 0.55 µg/m3 12.54 µg/m3 4.64 µg/m3 0 mg/m3 20.09 °C 74.75 % 1,011.25 mbar 0.49 m/s 168.1 Deg 7.01 µg/m3
2021-11-15 10:00 62.08 µg/m3 1.23 µg/m3 17.92 µg/m3 8.45 µg/m3 0 mg/m3 18.92 °C 81.93 % 1,011.27 mbar 0.27 m/s 286.85 Deg 55.85 µg/m3
2021-11-15 09:00 98.31 µg/m3 3.08 µg/m3 36.37 µg/m3 20.61 µg/m3 0 mg/m3 16.98 °C 93.15 % 1,011.19 mbar 0.35 m/s 195.55 Deg 235.45 µg/m3
2021-11-15 08:00 75.25 µg/m3 2.8 µg/m3 26.46 µg/m3 14.96 µg/m3 0 mg/m3 15.91 °C 95.47 % 1,010.70 mbar 1.57 m/s 192.68 Deg 223.8 µg/m3
2021-11-15 07:00 58.83 µg/m3 1.69 µg/m3 19.03 µg/m3 10.4 µg/m3 0 mg/m3 16.29 °C 96.09 % 1,010.39 mbar 1.43 m/s 192.64 Deg 125.9 µg/m3
2021-11-15 06:00 52.31 µg/m3 1.14 µg/m3 17.87 µg/m3 9.75 µg/m3 0 mg/m3 16.62 °C 95.27 % 1,010.35 mbar 1.6 m/s 195.67 Deg 55.09 µg/m3
2021-11-15 05:00 58.04 µg/m3 1.03 µg/m3 18.22 µg/m3 9.98 µg/m3 0 mg/m3 17.14 °C 93.82 % 1,010.19 mbar 1.25 m/s 203.53 Deg 55.27 µg/m3
2021-11-15 04:00 58.88 µg/m3 0.61 µg/m3 14.99 µg/m3 7.49 µg/m3 0 mg/m3 17.48 °C 92.81 % 1,010.43 mbar 0.93 m/s 253.42 Deg 18.9 µg/m3
2021-11-15 03:00 58.25 µg/m3 0.89 µg/m3 17.17 µg/m3 9.13 µg/m3 0 mg/m3 16.47 °C 95.35 % 1,011.09 mbar 1.18 m/s 185.22 Deg 42.62 µg/m3
2021-11-15 02:00 55.29 µg/m3 1.26 µg/m3 22.43 µg/m3 12.82 µg/m3 0 mg/m3 16.51 °C 95.13 % 1,011.20 mbar 1.48 m/s 195.47 Deg 72.33 µg/m3
2021-11-15 01:00 50.72 µg/m3 1.47 µg/m3 26.93 µg/m3 15.66 µg/m3 0 mg/m3 16.39 °C 93.47 % 1,011.61 mbar 1.3 m/s 204.31 Deg 96.41 µg/m3
2021-11-15 00:00 43.82 µg/m3 1.27 µg/m3 24.75 µg/m3 13.72 µg/m3 0 mg/m3 16.23 °C 92.34 % 1,011.71 mbar 1.79 m/s 203.49 Deg 68.23 µg/m3
2021-11-14 23:00 48.59 µg/m3 1.4 µg/m3 27.12 µg/m3 14.97 µg/m3 0 mg/m3 16.62 °C 91.45 % 1,011.84 mbar 0.95 m/s 192.81 Deg 79.77 µg/m3
2021-11-14 22:00 53.32 µg/m3 1.28 µg/m3 28.67 µg/m3 16.02 µg/m3 0 mg/m3 16.79 °C 89.76 % 1,011.78 mbar 1.09 m/s 198.72 Deg 65.05 µg/m3
2021-11-14 21:00 54.31 µg/m3 1.5 µg/m3 30.54 µg/m3 17.53 µg/m3 0 mg/m3 16.9 °C 88.73 % 1,011.63 mbar 2.15 m/s 200.53 Deg 86.8 µg/m3
2021-11-14 20:00 63.83 µg/m3 1.01 µg/m3 21.8 µg/m3 11.04 µg/m3 0 mg/m3 17.72 °C 85.41 % 1,011.57 mbar 1.68 m/s 195.78 Deg 48.98 µg/m3
2021-11-14 19:00 66.84 µg/m3 0.65 µg/m3 16 µg/m3 7.06 µg/m3 0 mg/m3 18.61 °C 80.98 % 1,011.36 mbar 0.8 m/s 200.31 Deg 24.06 µg/m3
2021-11-14 18:00 43.26 µg/m3 0.39 µg/m3 14.15 µg/m3 5.71 µg/m3 0 mg/m3 19.03 °C 77.34 % 1,010.91 mbar 0.58 m/s 237.37 Deg 5.06 µg/m3
2021-11-14 17:00 42.4 µg/m3 0.47 µg/m3 13.43 µg/m3 4.62 µg/m3 0 mg/m3 19.32 °C 75.01 % 1,010.50 mbar 0.89 m/s 231.41 Deg 14.32 µg/m3
2021-11-14 16:00 14.6 µg/m3 0.41 µg/m3 13.1 µg/m3 4.67 µg/m3 0 mg/m3 19.59 °C 77.16 % 1,010.23 mbar 0.48 m/s 313.57 Deg 1.49 µg/m3
2021-11-14 15:00 18.79 µg/m3 0.55 µg/m3 13.51 µg/m3 5.01 µg/m3 0 mg/m3 19.81 °C 78.97 % 1,010.83 mbar 0.62 m/s 255.05 Deg 3.48 µg/m3
2021-11-14 14:00 11.97 µg/m3 0.33 µg/m3 14.04 µg/m3 5.51 µg/m3 0 mg/m3 20.49 °C 76.51 % 1,011.10 mbar 0.59 m/s 306.16 Deg 2.44 µg/m3
2021-11-14 13:00 11.22 µg/m3 0.44 µg/m3 13.29 µg/m3 4.27 µg/m3 0 mg/m3 20.76 °C 67.69 % 1,011.56 mbar 0.69 m/s 250.7 Deg 1.67 µg/m3
2021-11-14 12:00 11.7 µg/m3 0.6 µg/m3 13.49 µg/m3 4.39 µg/m3 0 mg/m3 20.79 °C 64.32 % 1,012.36 mbar 0.67 m/s 256.85 Deg 2.48 µg/m3
2021-11-14 11:00 23.45 µg/m3 0.58 µg/m3 13.47 µg/m3 4.3 µg/m3 0 mg/m3 20.2 °C 69.81 % 1,013.00 mbar 0.76 m/s 245.82 Deg 4.11 µg/m3
2021-11-14 10:00 34.35 µg/m3 0.64 µg/m3 14.67 µg/m3 5.09 µg/m3 0 mg/m3 19.47 °C 71.56 % 1,012.88 mbar 0.64 m/s 269.56 Deg 6.37 µg/m3
2021-11-14 09:00 60.54 µg/m3 1.79 µg/m3 28.5 µg/m3 15.18 µg/m3 0 mg/m3 16.27 °C 84.65 % 1,012.97 mbar 1.01 m/s 188.79 Deg 105.92 µg/m3
2021-11-14 08:00 46.22 µg/m3 1.54 µg/m3 25.28 µg/m3 13.6 µg/m3 0 mg/m3 14.58 °C 88.64 % 1,012.91 mbar 1.68 m/s 200.54 Deg 95.04 µg/m3
2021-11-14 07:00 50.02 µg/m3 1.65 µg/m3 34.58 µg/m3 20.96 µg/m3 0 mg/m3 14.47 °C 87.63 % 1,012.83 mbar 1.67 m/s 202.45 Deg 101.37 µg/m3
2021-11-14 06:00 41.73 µg/m3 1.21 µg/m3 35.62 µg/m3 22.14 µg/m3 0 mg/m3 14.48 °C 86.71 % 1,012.92 mbar 2.06 m/s 203.34 Deg 53.27 µg/m3
2021-11-14 05:00 49.4 µg/m3 1.38 µg/m3 24.87 µg/m3 13.95 µg/m3 0 mg/m3 14.74 °C 85.13 % 1,013.06 mbar 1.97 m/s 205.03 Deg 83.45 µg/m3
2021-11-14 04:00 48.92 µg/m3 1.32 µg/m3 18.4 µg/m3 8.94 µg/m3 0 mg/m3 14.97 °C 84.59 % 1,013.36 mbar 1.93 m/s 201.33 Deg 79.61 µg/m3
2021-11-14 03:00 48.06 µg/m3 1.11 µg/m3 17.9 µg/m3 8.44 µg/m3 0 mg/m3 15.07 °C 84.47 % 1,013.83 mbar 1.79 m/s 199.82 Deg 41.21 µg/m3
2021-11-14 02:00 49.75 µg/m3 1.07 µg/m3 18.92 µg/m3 8.93 µg/m3 0 mg/m3 15.05 °C 83.63 % 1,014.00 mbar 2.38 m/s 201.53 Deg 52.85 µg/m3
2021-11-14 01:00 55.45 µg/m3 1.36 µg/m3 21.23 µg/m3 10.57 µg/m3 0 mg/m3 15.43 °C 83.06 % 1,014.18 mbar 1.99 m/s 197.02 Deg 75.51 µg/m3
2021-11-14 00:00 55.82 µg/m3 1.24 µg/m3 23.6 µg/m3 11.82 µg/m3 0 mg/m3 15.68 °C 84.83 % 1,014.59 mbar 2.2 m/s 201.04 Deg 62.78 µg/m3
2021-11-13 23:00 59.1 µg/m3 1.34 µg/m3 26.24 µg/m3 13.99 µg/m3 0 mg/m3 16.07 °C 84.14 % 1,014.72 mbar 2.1 m/s 197.02 Deg 75.93 µg/m3
2021-11-13 22:00 61.73 µg/m3 1.54 µg/m3 34 µg/m3 18.59 µg/m3 0 mg/m3 16.43 °C 85.44 % 1,014.67 mbar 2.13 m/s 199.89 Deg 92.24 µg/m3
2021-11-13 21:00 65.04 µg/m3 1.74 µg/m3 39.83 µg/m3 21.19 µg/m3 0 mg/m3 17.15 °C 83.98 % 1,014.78 mbar 1.69 m/s 199.4 Deg 106.16 µg/m3
2021-11-13 20:00 66.34 µg/m3 1.41 µg/m3 38.92 µg/m3 21.07 µg/m3 0 mg/m3 17.71 °C 81.09 % 1,014.87 mbar 1.76 m/s 196.64 Deg 80.27 µg/m3
2021-11-13 19:00 81.62 µg/m3 1.52 µg/m3 34.67 µg/m3 14.61 µg/m3 0 mg/m3 18.83 °C 75.61 % 1,014.72 mbar 1.13 m/s 206.14 Deg 83.01 µg/m3
2021-11-13 18:00 72.02 µg/m3 0.75 µg/m3 25.19 µg/m3 8.71 µg/m3 0 mg/m3 19.57 °C 69.28 % 1,014.60 mbar 1.11 m/s 200.36 Deg 18.81 µg/m3
2021-11-13 17:00 24.71 µg/m3 0.48 µg/m3 18.62 µg/m3 5.1 µg/m3 0 mg/m3 20.12 °C 62.32 % 1,014.36 mbar 0.54 m/s 260.31 Deg 5.9 µg/m3
2021-11-13 16:00 23.56 µg/m3 0.45 µg/m3 12.54 µg/m3 3.95 µg/m3 0 mg/m3 20.36 °C 60.91 % 1,014.50 mbar 2.03 m/s 203.68 Deg 3.31 µg/m3
2021-11-13 15:00 22.32 µg/m3 0.53 µg/m3 14.34 µg/m3 4.39 µg/m3 0 mg/m3 20.42 °C 61.88 % 1,014.58 mbar 2.55 m/s 200.21 Deg 3.07 µg/m3
2021-11-13 14:00 24.42 µg/m3 0.56 µg/m3 20.03 µg/m3 5.4 µg/m3 0 mg/m3 20.42 °C 66.08 % 1,014.82 mbar 0.33 m/s 151.3 Deg 2.12 µg/m3
2021-11-13 13:00 31.27 µg/m3 0.64 µg/m3 21.15 µg/m3 5.83 µg/m3 0 mg/m3 20.69 °C 63.11 % 1,015.14 mbar 0.42 m/s 181.96 Deg 4.3 µg/m3
2021-11-13 12:00 41.82 µg/m3 0.71 µg/m3 18.39 µg/m3 5.36 µg/m3 0 mg/m3 20.19 °C 63.41 % 1,015.62 mbar 0.43 m/s 165.59 Deg 7.83 µg/m3
2021-11-13 11:00 58.82 µg/m3 0.94 µg/m3 19.65 µg/m3 6.37 µg/m3 0 mg/m3 19.9 °C 64.55 % 1,016.28 mbar 0.45 m/s 176.93 Deg 12.51 µg/m3
2021-11-13 10:00 90.12 µg/m3 2.04 µg/m3 44.04 µg/m3 16.56 µg/m3 0 mg/m3 18.6 °C 69.55 % 1,016.30 mbar 0.38 m/s 105.7 Deg 101.96 µg/m3
2021-11-13 09:00 89.25 µg/m3 2.48 µg/m3 47.64 µg/m3 20.99 µg/m3 0 mg/m3 16.36 °C 79.1 % 1,016.12 mbar 1.87 m/s 196.56 Deg 152.58 µg/m3
2021-11-13 08:00 80.64 µg/m3 2.46 µg/m3 33.05 µg/m3 15.41 µg/m3 0 mg/m3 14.7 °C 84.49 % 1,015.67 mbar 2.07 m/s 200.33 Deg 167.48 µg/m3
2021-11-13 07:00 62.02 µg/m3 2 µg/m3 26.84 µg/m3 12.81 µg/m3 0 mg/m3 14.26 °C 83.26 % 1,015.55 mbar 2.11 m/s 195.9 Deg 111.56 µg/m3
2021-11-13 06:00 64.27 µg/m3 2.22 µg/m3 24.89 µg/m3 12 µg/m3 0 mg/m3 14.2 °C 83.07 % 1,015.31 mbar 2.37 m/s 199.05 Deg 123.98 µg/m3
2021-11-13 05:00 54.67 µg/m3 1.28 µg/m3 21.74 µg/m3 10.37 µg/m3 0 mg/m3 14.21 °C 83.81 % 1,015.19 mbar 2.56 m/s 198.56 Deg 65.61 µg/m3
2021-11-13 04:00 52.76 µg/m3 1.24 µg/m3 21.1 µg/m3 10.04 µg/m3 0 mg/m3 14.25 °C 83.72 % 1,015.16 mbar 2.56 m/s 198.03 Deg 68.17 µg/m3
2021-11-13 03:00 52.81 µg/m3 1.11 µg/m3 21.35 µg/m3 9.92 µg/m3 0 mg/m3 14.54 °C 82.13 % 1,015.27 mbar 2.26 m/s 196.78 Deg 53.29 µg/m3
2021-11-13 02:00 58.34 µg/m3 1.45 µg/m3 22.94 µg/m3 11.31 µg/m3 0 mg/m3 14.61 °C 80.8 % 1,015.43 mbar 2.28 m/s 198.18 Deg 78.31 µg/m3
2021-11-13 01:00 62.18 µg/m3 1.52 µg/m3 23.35 µg/m3 11.52 µg/m3 0 mg/m3 14.78 °C 80.96 % 1,015.47 mbar 2.16 m/s 198.83 Deg 95.35 µg/m3
2021-11-13 00:00 63.03 µg/m3 1.44 µg/m3 26.1 µg/m3 12.98 µg/m3 0 mg/m3 15.02 °C 81.1 % 1,015.58 mbar 2.28 m/s 202.12 Deg 85.4 µg/m3
2021-11-12 23:00 64.54 µg/m3 1.31 µg/m3 28.94 µg/m3 14.23 µg/m3 0 mg/m3 15.47 °C 80.49 % 1,015.64 mbar 2.29 m/s 202.45 Deg 71.3 µg/m3
2021-11-12 22:00 77.48 µg/m3 1.95 µg/m3 35.32 µg/m3 17.53 µg/m3 0 mg/m3 15.99 °C 77.79 % 1,015.74 mbar 2.12 m/s 199.47 Deg 133.34 µg/m3
2021-11-12 21:00 79.7 µg/m3 1.89 µg/m3 39.54 µg/m3 18.96 µg/m3 0 mg/m3 16.64 °C 76.98 % 1,015.53 mbar 2.12 m/s 200.58 Deg 127.12 µg/m3
2021-11-12 20:00 95.57 µg/m3 2.48 µg/m3 44.62 µg/m3 19.43 µg/m3 0 mg/m3 17.46 °C 71.98 % 1,015.42 mbar 1.76 m/s 196.98 Deg 162.31 µg/m3
2021-11-12 19:00 97.83 µg/m3 1.35 µg/m3 37.09 µg/m3 12.69 µg/m3 0 mg/m3 18.74 °C 64.65 % 1,015.30 mbar 1.02 m/s 241.68 Deg 80.2 µg/m3
2021-11-12 18:00 41.56 µg/m3 0.4 µg/m3 19.04 µg/m3 4.95 µg/m3 0 mg/m3 19.46 °C 56.26 % 1,014.88 mbar 0.63 m/s 324.74 Deg 7.46 µg/m3
2021-11-12 17:00 17.13 µg/m3 0.4 µg/m3 13.76 µg/m3 3.71 µg/m3 0 mg/m3 20.42 °C 52.21 % 1,014.48 mbar 0.73 m/s 246 Deg 2.16 µg/m3
2021-11-12 16:00 15.98 µg/m3 0.44 µg/m3 13.55 µg/m3 3.75 µg/m3 0 mg/m3 21.09 °C 55.21 % 1,014.08 mbar 0.57 m/s 171.57 Deg 2.22 µg/m3
2021-11-12 15:00 14.92 µg/m3 0.51 µg/m3 14.77 µg/m3 4 µg/m3 0 mg/m3 21.13 °C 53.2 % 1,014.01 mbar 0.95 m/s 260.5 Deg 3.29 µg/m3
2021-11-12 14:00 12.69 µg/m3 0.57 µg/m3 14.71 µg/m3 3.84 µg/m3 0 mg/m3 21.2 °C 47.32 % 1,014.03 mbar 1.25 m/s 318.08 Deg 3.59 µg/m3
2021-11-12 13:00 23.01 µg/m3 0.69 µg/m3 15.92 µg/m3 4.25 µg/m3 0 mg/m3 21.03 °C 52.28 % 1,014.30 mbar 1.14 m/s 235.93 Deg 4.72 µg/m3
2021-11-12 12:00 22.04 µg/m3 1.06 µg/m3 14.05 µg/m3 4.07 µg/m3 0 mg/m3 20.41 °C 51.46 % 1,014.87 mbar 3.01 m/s 197.86 Deg 7.55 µg/m3
2021-11-12 11:00 37.78 µg/m3 1.25 µg/m3 20.82 µg/m3 5.19 µg/m3 0 mg/m3 19.89 °C 49.79 % 1,015.35 mbar 1.17 m/s 229.92 Deg 7.47 µg/m3
2021-11-12 10:00 111.95 µg/m3 2.82 µg/m3 53.89 µg/m3 17.79 µg/m3 0 mg/m3 18.35 °C 59.17 % 1,015.42 mbar 0.5 m/s 206.75 Deg 133.48 µg/m3
2021-11-12 09:00 115.9 µg/m3 3.37 µg/m3 50.25 µg/m3 21.36 µg/m3 0 mg/m3 15.91 °C 71.14 % 1,015.47 mbar 1.91 m/s 193.96 Deg 208.08 µg/m3
2021-11-12 08:00 92.79 µg/m3 3.22 µg/m3 35.54 µg/m3 15.91 µg/m3 0 mg/m3 14.22 °C 77.1 % 1,015.27 mbar 2.16 m/s 199.89 Deg 205.51 µg/m3
2021-11-12 07:00 75.11 µg/m3 2.44 µg/m3 25.22 µg/m3 12.2 µg/m3 0 mg/m3 13.85 °C 80.95 % 1,014.95 mbar 2.42 m/s 203.5 Deg 161.42 µg/m3
2021-11-12 06:00 65.63 µg/m3 1.65 µg/m3 20.68 µg/m3 10.43 µg/m3 0 mg/m3 14.16 °C 80.85 % 1,014.77 mbar 2.31 m/s 205.15 Deg 71.99 µg/m3
2021-11-12 05:00 50.44 µg/m3 1.06 µg/m3 16.24 µg/m3 7.82 µg/m3 0 mg/m3 14.06 °C 83.31 % 1,014.72 mbar 2.77 m/s 202.54 Deg 52.4 µg/m3
2021-11-12 04:00 36.98 µg/m3 0.64 µg/m3 13.8 µg/m3 6.27 µg/m3 0 mg/m3 14.37 °C 82.58 % 1,014.86 mbar 2.5 m/s 204.51 Deg 14.56 µg/m3
2021-11-12 03:00 50.28 µg/m3 0.77 µg/m3 15.82 µg/m3 7.7 µg/m3 0 mg/m3 14.86 °C 82.02 % 1,015.15 mbar 1.99 m/s 202.1 Deg 19.59 µg/m3
2021-11-12 02:00 65.52 µg/m3 1.23 µg/m3 18.22 µg/m3 9.23 µg/m3 0 mg/m3 15.11 °C 80.08 % 1,015.20 mbar 2.03 m/s 199.33 Deg 70.71 µg/m3
2021-11-12 01:00 63.83 µg/m3 0.85 µg/m3 20.23 µg/m3 10.4 µg/m3 0 mg/m3 15.55 °C 79.16 % 1,015.35 mbar 1.84 m/s 205.09 Deg 34.2 µg/m3
2021-11-12 00:00 64.35 µg/m3 0.96 µg/m3 19.8 µg/m3 9.8 µg/m3 0 mg/m3 15.8 °C 80.52 % 1,015.50 mbar 2.04 m/s 203.25 Deg 47.39 µg/m3
2021-11-11 23:00 64.82 µg/m3 0.92 µg/m3 21.09 µg/m3 10.26 µg/m3 0 mg/m3 16.17 °C 81.63 % 1,015.86 mbar 1.9 m/s 203.65 Deg 44.23 µg/m3
2021-11-11 22:00 75.31 µg/m3 1.17 µg/m3 24.32 µg/m3 11.36 µg/m3 0 mg/m3 16.8 °C 77.47 % 1,016.05 mbar 1.96 m/s 203.59 Deg 71.48 µg/m3
2021-11-11 21:00 89.07 µg/m3 1.39 µg/m3 30.91 µg/m3 12.71 µg/m3 0 mg/m3 17.33 °C 74.74 % 1,015.76 mbar 1.38 m/s 192.4 Deg 95.33 µg/m3
2021-11-11 20:00 87.12 µg/m3 1.25 µg/m3 34.1 µg/m3 13.43 µg/m3 0 mg/m3 17.76 °C 71.46 % 1,015.55 mbar 1.87 m/s 196.5 Deg 72.77 µg/m3
2021-11-11 19:00 64.92 µg/m3 0.49 µg/m3 25.7 µg/m3 8.79 µg/m3 0 mg/m3 18.99 °C 59.97 % 1,015.54 mbar 1.6 m/s 222.91 Deg 13.39 µg/m3
2021-11-11 18:00 46.18 µg/m3 0.32 µg/m3 20.27 µg/m3 6.28 µg/m3 0 mg/m3 19.56 °C 56.8 % 1,015.04 mbar 1.88 m/s 220.68 Deg 3.42 µg/m3
2021-11-11 17:00 26.73 µg/m3 0.35 µg/m3 20.11 µg/m3 6.58 µg/m3 0 mg/m3 20.5 °C 51.65 % 1,014.62 mbar 2.34 m/s 246.99 Deg 4.12 µg/m3
2021-11-11 16:00 20.97 µg/m3 0.31 µg/m3 21.71 µg/m3 5.85 µg/m3 0 mg/m3 20.95 °C 50.11 % 1,014.70 mbar 1.94 m/s 274.43 Deg 6.28 µg/m3
2021-11-11 15:00 15.13 µg/m3 0.24 µg/m3 19.91 µg/m3 5.22 µg/m3 0 mg/m3 20.65 °C 52.17 % 1,014.64 mbar 2.24 m/s 265.89 Deg 2.07 µg/m3
2021-11-11 14:00 11.2 µg/m3 0.2 µg/m3 19.45 µg/m3 5.67 µg/m3 0 mg/m3 20.39 °C 62.01 % 1,014.81 mbar 2.16 m/s 297.1 Deg 1.96 µg/m3
2021-11-11 13:00 10 µg/m3 0.21 µg/m3 25.61 µg/m3 8.39 µg/m3 0 mg/m3 20 °C 76.55 % 1,015.14 mbar 0.77 m/s 319.45 Deg 1.85 µg/m3
2021-11-11 12:00 10.68 µg/m3 0.19 µg/m3 24.45 µg/m3 9.27 µg/m3 0 mg/m3 19.5 °C 78.92 % 1,015.15 mbar 0.89 m/s 237.78 Deg 2.03 µg/m3
2021-11-11 11:00 10.88 µg/m3 0.16 µg/m3 18.31 µg/m3 7.77 µg/m3 0 mg/m3 18.85 °C 81.76 % 1,015.36 mbar 1.01 m/s 250.83 Deg 1.87 µg/m3
2021-11-11 10:00 29.06 µg/m3 0.29 µg/m3 16.35 µg/m3 7.29 µg/m3 0 mg/m3 18.4 °C 87.63 % 1,015.13 mbar 2.42 m/s 280.53 Deg 14.43 µg/m3
2021-11-11 09:00 36.57 µg/m3 0.31 µg/m3 20.03 µg/m3 10.47 µg/m3 0 mg/m3 18.89 °C 94.17 % 1,014.66 mbar 1.8 m/s 221.87 Deg 12.09 µg/m3
2021-11-11 08:00 14.27 µg/m3 0.18 µg/m3 32.38 µg/m3 18.83 µg/m3 0 mg/m3 19.97 °C 94.05 % 1,014.06 mbar 1.14 m/s 251.36 Deg 2.67 µg/m3
2021-11-11 07:00 9.13 µg/m3 0.2 µg/m3 31.51 µg/m3 17.92 µg/m3 0 mg/m3 20.38 °C 91.8 % 1,014.11 mbar 1.07 m/s 349.28 Deg 1.2 µg/m3
2021-11-11 06:00 29.71 µg/m3 0.23 µg/m3 34.62 µg/m3 19.26 µg/m3 0 mg/m3 20.62 °C 90.2 % 1,013.87 mbar 1.14 m/s 324.13 Deg 6.06 µg/m3
2021-11-11 05:00 23.44 µg/m3 0.24 µg/m3 34.89 µg/m3 19.06 µg/m3 0 mg/m3 20.63 °C 88.63 % 1,014.00 mbar 1.09 m/s 245.32 Deg 4.44 µg/m3
2021-11-11 04:00 8.72 µg/m3 0.22 µg/m3 34.48 µg/m3 19.4 µg/m3 0 mg/m3 20.48 °C 90.43 % 1,014.53 mbar 1.14 m/s 304.92 Deg 1.26 µg/m3
2021-11-11 03:00 7.22 µg/m3 0.2 µg/m3 34.43 µg/m3 19.9 µg/m3 0 mg/m3 20.39 °C 92.14 % 1,014.97 mbar 1.08 m/s 335.33 Deg 0.63 µg/m3
2021-11-11 02:00 11.74 µg/m3 0.19 µg/m3 35.41 µg/m3 20.69 µg/m3 0 mg/m3 20.36 °C 92.83 % 1,015.52 mbar 1.17 m/s 217.31 Deg 1.14 µg/m3
2021-11-11 01:00 16.35 µg/m3 0.23 µg/m3 39.07 µg/m3 21.97 µg/m3 0 mg/m3 20.96 °C 88.32 % 1,015.69 mbar 1.09 m/s 311.28 Deg 1.37 µg/m3
2021-11-11 00:00 11.22 µg/m3 0.25 µg/m3 38.51 µg/m3 21.38 µg/m3 0 mg/m3 21.12 °C 85.77 % 1,015.80 mbar 1.06 m/s 330.99 Deg 1.01 µg/m3
2021-11-10 23:00 13.72 µg/m3 0.24 µg/m3 40.57 µg/m3 22.53 µg/m3 0 mg/m3 21.32 °C 85.98 % 1,015.95 mbar 1.1 m/s 318.78 Deg 1.62 µg/m3
2021-11-10 22:00 5.77 µg/m3 0.23 µg/m3 39.71 µg/m3 21.97 µg/m3 0 mg/m3 21.42 °C 85.81 % 1,016.06 mbar 0.97 m/s 87.82 Deg 1.03 µg/m3
2021-11-10 21:00 6.54 µg/m3 0.23 µg/m3 38.44 µg/m3 20.86 µg/m3 0 mg/m3 21.48 °C 85.83 % 1,016.09 mbar 1.12 m/s 326.21 Deg 0.56 µg/m3
2021-11-10 20:00 7.65 µg/m3 0.22 µg/m3 37.62 µg/m3 20.6 µg/m3 0 mg/m3 21.49 °C 86.79 % 1,015.51 mbar 1.23 m/s 233.68 Deg 1.37 µg/m3
2021-11-10 19:00 4.6 µg/m3 0.22 µg/m3 37.42 µg/m3 20.33 µg/m3 0 mg/m3 21.67 °C 87.52 % 1,015.61 mbar 1.09 m/s 337.23 Deg 0.66 µg/m3
2021-11-10 18:00 9.31 µg/m3 0.21 µg/m3 35.92 µg/m3 19.38 µg/m3 0 mg/m3 21.77 °C 87.36 % 1,015.54 mbar 1.13 m/s 183.66 Deg 1.55 µg/m3
2021-11-10 17:00 6.22 µg/m3 0.29 µg/m3 37.41 µg/m3 20.21 µg/m3 0 mg/m3 21.83 °C 89.43 % 1,015.46 mbar 0.97 m/s 334.47 Deg 0.76 µg/m3
2021-11-10 16:00 14 µg/m3 0.31 µg/m3 35.5 µg/m3 19.23 µg/m3 0 mg/m3 21.85 °C 90.8 % 1,015.04 mbar 1 m/s 247.58 Deg 2.3 µg/m3
2021-11-10 15:00 23.98 µg/m3 0.33 µg/m3 38.3 µg/m3 19.71 µg/m3 0 mg/m3 21.77 °C 91.79 % 1,014.57 mbar 1.07 m/s 308.92 Deg 5.08 µg/m3
2021-11-10 14:00 16.66 µg/m3 0.26 µg/m3 38.94 µg/m3 19.02 µg/m3 0 mg/m3 21.97 °C 90.18 % 1,014.76 mbar 1.02 m/s 306.98 Deg 3.08 µg/m3
2021-11-10 13:00 14.93 µg/m3 0.32 µg/m3 38.27 µg/m3 18.41 µg/m3 0 mg/m3 22.77 °C 86.58 % 1,015.76 mbar 0.96 m/s 319.24 Deg 3.67 µg/m3
2021-11-10 12:00 25.05 µg/m3 0.33 µg/m3 40.65 µg/m3 19.83 µg/m3 0 mg/m3 22.15 °C 88.09 % 1,016.37 mbar 0.94 m/s 215.4 Deg 5.27 µg/m3
2021-11-10 11:00 12.5 µg/m3 0.84 µg/m3 37.63 µg/m3 18.25 µg/m3 0 mg/m3 22.1 °C 86.13 % 1,016.77 mbar 0.91 m/s 119.54 Deg 67.46 µg/m3
2021-11-10 09:00 38.83 µg/m3 0.34 µg/m3 25.57 µg/m3 12.42 µg/m3 0 mg/m3 20.74 °C 87.34 % 1,016.58 mbar 0.79 m/s 256.84 Deg 13.37 µg/m3
2021-11-10 08:00 23.22 µg/m3 0.28 µg/m3 17.86 µg/m3 8.2 µg/m3 0 mg/m3 19.81 °C 86.86 % 1,016.24 mbar 0.95 m/s 173.33 Deg 7.43 µg/m3
2021-11-10 07:00 12.77 µg/m3 0.21 µg/m3 13.89 µg/m3 5.85 µg/m3 0 mg/m3 19.6 °C 83.05 % 1,015.70 mbar 1.48 m/s 116.05 Deg 2.08 µg/m3
2021-11-10 06:00 0.33 µg/m3 0.22 µg/m3 12.64 µg/m3 4.99 µg/m3 0 mg/m3 19.37 °C 80.8 % 1,015.70 mbar 1.49 m/s 283.08 Deg 0.54 µg/m3
2021-11-10 05:00 0.43 µg/m3 0.12 µg/m3 12.39 µg/m3 4.78 µg/m3 0 mg/m3 18.76 °C 81.57 % 1,015.79 mbar 1.12 m/s 333.35 Deg 0.38 µg/m3
2021-11-10 04:00 -0.45 µg/m3 0.14 µg/m3 11.88 µg/m3 4.54 µg/m3 0 mg/m3 18.41 °C 82.18 % 1,015.77 mbar 1.08 m/s 284.13 Deg 0.45 µg/m3
2021-11-10 03:00 -0.26 µg/m3 0.19 µg/m3 12.41 µg/m3 5.05 µg/m3 0 mg/m3 18.01 °C 85.85 % 1,015.81 mbar 2.47 m/s 255.36 Deg 0.3 µg/m3
2021-11-10 02:00 5.17 µg/m3 0.14 µg/m3 13.02 µg/m3 5.8 µg/m3 0 mg/m3 18.15 °C 88.63 % 1,015.87 mbar 4.32 m/s 217.35 Deg 0.65 µg/m3
2021-11-10 01:00 8.5 µg/m3 0.19 µg/m3 19.95 µg/m3 10.44 µg/m3 0 mg/m3 19.83 °C 86.6 % 1,015.95 mbar 4.77 m/s 205.68 Deg 1.56 µg/m3
2021-11-10 00:00 9.25 µg/m3 0.18 µg/m3 29.75 µg/m3 16.2 µg/m3 0 mg/m3 21.11 °C 89.96 % 1,014.55 mbar 1.09 m/s 253.43 Deg 1.19 µg/m3
2021-11-09 23:00 14.37 µg/m3 0.21 µg/m3 28.87 µg/m3 15.76 µg/m3 0 mg/m3 20.97 °C 91.96 % 1,013.68 mbar 1.15 m/s 304.94 Deg 1.66 µg/m3
2021-11-09 22:00 20.18 µg/m3 0.26 µg/m3 28.5 µg/m3 15.62 µg/m3 0 mg/m3 20.89 °C 94.28 % 1,012.98 mbar 1.21 m/s 303.04 Deg 2.45 µg/m3
2021-11-09 21:00 45.4 µg/m3 0.39 µg/m3 27.99 µg/m3 15.43 µg/m3 0 mg/m3 21.1 °C 93.17 % 1,012.60 mbar 1.3 m/s 267.7 Deg 25.29 µg/m3
2021-11-09 20:00 18.34 µg/m3 0.19 µg/m3 14.35 µg/m3 6.23 µg/m3 0 mg/m3 20.48 °C 85.97 % 1,013.20 mbar 1.4 m/s 263.6 Deg 1.4 µg/m3
2021-11-09 19:00 22.17 µg/m3 0.21 µg/m3 11.62 µg/m3 4.86 µg/m3 0 mg/m3 19.99 °C 86.96 % 1,013.99 mbar 2.06 m/s 201.88 Deg 4.8 µg/m3
2021-11-09 18:00 23.4 µg/m3 0.25 µg/m3 12.26 µg/m3 4.96 µg/m3 0 mg/m3 19.34 °C 85.15 % 1,014.89 mbar 1.35 m/s 307.82 Deg 3.1 µg/m3
2021-11-09 17:00 22.69 µg/m3 0.23 µg/m3 11.8 µg/m3 4.77 µg/m3 0 mg/m3 18.52 °C 86.08 % 1,014.62 mbar 1.78 m/s 288.3 Deg 4.69 µg/m3
2021-11-09 16:00 38.95 µg/m3 0.43 µg/m3 17.18 µg/m3 7.87 µg/m3 0 mg/m3 18.19 °C 88.13 % 1,013.99 mbar 5.04 m/s 240.67 Deg 22.42 µg/m3
2021-11-09 15:00 29.81 µg/m3 0.3 µg/m3 26.02 µg/m3 11.95 µg/m3 0 mg/m3 22.06 °C 86.56 % 1,013.31 mbar 1.73 m/s 275 Deg 12.09 µg/m3
2021-11-09 14:00 48.13 µg/m3 0.41 µg/m3 30.66 µg/m3 14.13 µg/m3 0 mg/m3 23.33 °C 86.92 % 1,013.09 mbar 0.63 m/s 268.53 Deg 25 µg/m3
2021-11-09 13:00 19.33 µg/m3 0.26 µg/m3 28.97 µg/m3 13.24 µg/m3 0 mg/m3 23.28 °C 86.34 % 1,012.50 mbar 0.68 m/s 252.6 Deg 5.07 µg/m3
2021-11-09 12:00 19.27 µg/m3 0.29 µg/m3 31.51 µg/m3 14.56 µg/m3 0 mg/m3 22.79 °C 90.24 % 1,012.76 mbar 0.58 m/s 98.13 Deg 4.9 µg/m3
2021-11-09 11:00 29.82 µg/m3 0.36 µg/m3 32.55 µg/m3 15.09 µg/m3 0 mg/m3 22.92 °C 90.79 % 1,012.67 mbar 0.62 m/s 245.88 Deg 12.39 µg/m3
2021-11-09 10:00 25.28 µg/m3 0.33 µg/m3 31.66 µg/m3 14.88 µg/m3 0 mg/m3 22.73 °C 93.19 % 1,012.36 mbar 0.5 m/s 315.2 Deg 9.33 µg/m3
2021-11-09 09:00 39.34 µg/m3 0.4 µg/m3 28.73 µg/m3 13.96 µg/m3 0 mg/m3 22.23 °C 95.57 % 1,011.89 mbar 0.42 m/s 306.24 Deg 11.73 µg/m3
2021-11-09 08:00 68.01 µg/m3 1.49 µg/m3 41.58 µg/m3 21.48 µg/m3 0 mg/m3 21.02 °C 97.1 % 1,011.21 mbar 0.74 m/s 244.69 Deg 122.99 µg/m3
2021-11-09 07:00 54.29 µg/m3 0.81 µg/m3 29.5 µg/m3 15.63 µg/m3 0 mg/m3 20.66 °C 97.29 % 1,010.42 mbar 0.44 m/s 181.35 Deg 57.26 µg/m3
2021-11-09 06:00 45.24 µg/m3 0.58 µg/m3 28.44 µg/m3 15.07 µg/m3 0 mg/m3 20.64 °C 97.27 % 1,009.92 mbar 1.37 m/s 202.18 Deg 32.42 µg/m3
2021-11-09 05:00 26.26 µg/m3 0.22 µg/m3 22.5 µg/m3 11.88 µg/m3 0 mg/m3 21.12 °C 96.56 % 1,009.28 mbar 0.65 m/s 284.53 Deg 6.15 µg/m3
2021-11-09 04:00 13.26 µg/m3 0.2 µg/m3 21.18 µg/m3 10.96 µg/m3 0 mg/m3 21.06 °C 95.72 % 1,009.36 mbar 0.28 m/s 262.64 Deg 0.8 µg/m3
2021-11-09 03:00 15.37 µg/m3 0.18 µg/m3 20.8 µg/m3 10.48 µg/m3 0 mg/m3 21.05 °C 94.08 % 1,009.52 mbar 0.47 m/s 235.83 Deg 0.36 µg/m3
2021-11-09 02:00 8.11 µg/m3 0.15 µg/m3 22.05 µg/m3 10.72 µg/m3 0 mg/m3 21.21 °C 92.28 % 1,009.62 mbar 0.83 m/s 238.48 Deg 0.76 µg/m3
2021-11-09 01:00 22.3 µg/m3 0.23 µg/m3 22.94 µg/m3 11.24 µg/m3 0 mg/m3 21.63 °C 92.14 % 1,009.66 mbar 0.89 m/s 206.84 Deg 1.71 µg/m3
2021-11-09 00:00 26.73 µg/m3 0.24 µg/m3 21.62 µg/m3 10.75 µg/m3 0 mg/m3 21.85 °C 93.22 % 1,009.38 mbar 2.56 m/s 206.87 Deg 3.07 µg/m3
2021-11-08 23:00 36.84 µg/m3 0.36 µg/m3 23.27 µg/m3 11.01 µg/m3 0 mg/m3 21.99 °C 90.65 % 1,008.54 mbar 2.11 m/s 195.44 Deg 6.27 µg/m3
2021-11-08 22:00 48.31 µg/m3 0.48 µg/m3 23.48 µg/m3 11.15 µg/m3 0 mg/m3 22.35 °C 89.22 % 1,008.27 mbar 1.59 m/s 184.47 Deg 24.93 µg/m3
2021-11-08 21:00 61.26 µg/m3 0.79 µg/m3 24.38 µg/m3 12.28 µg/m3 0 mg/m3 22.46 °C 90.98 % 1,008.63 mbar 2.02 m/s 178.65 Deg 53.87 µg/m3
2021-11-08 20:00 57.22 µg/m3 0.66 µg/m3 23.74 µg/m3 12.3 µg/m3 0 mg/m3 22.67 °C 92.34 % 1,008.67 mbar 2.15 m/s 173.04 Deg 51.25 µg/m3
2021-11-08 19:00 41.56 µg/m3 0.48 µg/m3 25.85 µg/m3 12.88 µg/m3 0 mg/m3 22.68 °C 92.02 % 1,008.26 mbar 1.59 m/s 198.72 Deg 30.87 µg/m3
2021-11-08 18:00 49.95 µg/m3 0.57 µg/m3 28.88 µg/m3 14.13 µg/m3 0 mg/m3 22.81 °C 90.64 % 1,007.69 mbar 1.2 m/s 160.93 Deg 37.86 µg/m3
2021-11-08 17:00 31.88 µg/m3 0.44 µg/m3 28.26 µg/m3 13.7 µg/m3 0 mg/m3 23.04 °C 89.36 % 1,007.66 mbar 1.86 m/s 228.08 Deg 22.77 µg/m3
2021-11-08 16:00 20.28 µg/m3 0.24 µg/m3 30.26 µg/m3 13.95 µg/m3 0 mg/m3 23.35 °C 87.43 % 1,006.99 mbar 0.7 m/s 291.55 Deg 4.73 µg/m3
2021-11-08 15:00 51.81 µg/m3 0.6 µg/m3 29.95 µg/m3 14.08 µg/m3 0 mg/m3 23.54 °C 85.32 % 1,007.79 mbar 1.97 m/s 181.53 Deg 41.36 µg/m3
2021-11-08 14:00 48.21 µg/m3 0.5 µg/m3 28.53 µg/m3 13.6 µg/m3 0 mg/m3 23.35 °C 85.38 % 1,007.82 mbar 2.65 m/s 170.78 Deg 35.58 µg/m3
2021-11-08 13:00 44.31 µg/m3 0.48 µg/m3 27.38 µg/m3 12.82 µg/m3 0 mg/m3 23.44 °C 84.51 % 1,007.89 mbar 2.09 m/s 183.94 Deg 32.23 µg/m3
2021-11-08 12:00 35.26 µg/m3 0.42 µg/m3 27.75 µg/m3 12.78 µg/m3 0 mg/m3 23.49 °C 84.86 % 1,008.45 mbar 1.76 m/s 181.57 Deg 17.04 µg/m3
2021-11-08 11:00 19.43 µg/m3 0.27 µg/m3 28.32 µg/m3 12.91 µg/m3 0 mg/m3 23.4 °C 85.7 % 1,008.55 mbar 0.87 m/s 250.61 Deg 6.96 µg/m3
2021-11-08 10:00 26.99 µg/m3 0.37 µg/m3 27 µg/m3 12.58 µg/m3 0 mg/m3 23 °C 86.9 % 1,009.22 mbar 1.53 m/s 174.88 Deg 7.57 µg/m3
2021-11-08 09:00 36.27 µg/m3 0.36 µg/m3 27.59 µg/m3 13.13 µg/m3 0 mg/m3 22.34 °C 87.88 % 1,009.25 mbar 1.43 m/s 171.03 Deg 14.69 µg/m3
2021-11-08 08:00 34.55 µg/m3 0.34 µg/m3 28.03 µg/m3 13.27 µg/m3 0 mg/m3 22.13 °C 87.19 % 1,009.13 mbar 1.08 m/s 207.93 Deg 11.95 µg/m3
2021-11-08 07:00 49.12 µg/m3 0.35 µg/m3 27.26 µg/m3 13.34 µg/m3 0 mg/m3 21.82 °C 88.48 % 1,009.06 mbar 0.84 m/s 212.32 Deg 14.6 µg/m3
2021-11-08 06:00 42.49 µg/m3 0.29 µg/m3 25.72 µg/m3 13.2 µg/m3 0 mg/m3 21.55 °C 92.13 % 1,008.88 mbar 1.33 m/s 187.54 Deg 9.7 µg/m3
2021-11-08 05:00 2.52 µg/m3 0.16 µg/m3 25.53 µg/m3 12.77 µg/m3 0 mg/m3 21.45 °C 93.55 % 1,008.11 mbar 0.64 m/s 339.13 Deg 0.64 µg/m3
2021-11-08 04:00 2.72 µg/m3 0.14 µg/m3 24.62 µg/m3 12.48 µg/m3 0 mg/m3 21.44 °C 94.95 % 1,008.39 mbar 0.8 m/s 265.99 Deg 0.54 µg/m3
2021-11-08 03:00 5.59 µg/m3 0.16 µg/m3 24.43 µg/m3 12.38 µg/m3 0 mg/m3 21.57 °C 95.61 % 1,008.86 mbar 0.89 m/s 258 Deg 0.83 µg/m3
2021-11-08 02:00 4.86 µg/m3 0.13 µg/m3 23.77 µg/m3 11.82 µg/m3 0 mg/m3 21.84 °C 95.3 % 1,009.66 mbar 0.69 m/s 178.03 Deg 1.08 µg/m3
2021-11-08 01:00 4.22 µg/m3 0.18 µg/m3 22.97 µg/m3 11.13 µg/m3 0 mg/m3 21.95 °C 94.25 % 1,010.20 mbar 0.7 m/s 155.89 Deg 0.76 µg/m3
2021-11-08 00:00 36.61 µg/m3 0.37 µg/m3 24.02 µg/m3 11.57 µg/m3 0 mg/m3 22.14 °C 91.94 % 1,011.41 mbar 1.07 m/s 211.15 Deg 16.54 µg/m3
2021-11-07 23:00 25.19 µg/m3 0.31 µg/m3 24.99 µg/m3 11.83 µg/m3 0 mg/m3 22.15 °C 90.9 % 1,011.22 mbar 0.8 m/s 267.43 Deg 8.25 µg/m3
2021-11-07 22:00 32.41 µg/m3 0.34 µg/m3 26.14 µg/m3 12.37 µg/m3 0 mg/m3 22.27 °C 89.11 % 1,011.40 mbar 1.38 m/s 223.56 Deg 14.44 µg/m3
2021-11-07 21:00 4.76 µg/m3 0.18 µg/m3 26.72 µg/m3 12.4 µg/m3 0 mg/m3 22.22 °C 90.46 % 1,010.94 mbar 0.77 m/s 235.24 Deg 0.88 µg/m3
2021-11-07 20:00 11.35 µg/m3 0.19 µg/m3 29.14 µg/m3 13.51 µg/m3 0 mg/m3 22.47 °C 90.19 % 1,010.94 mbar 0.68 m/s 230.66 Deg 1.53 µg/m3
2021-11-07 19:00 8.21 µg/m3 0.22 µg/m3 30.76 µg/m3 14.3 µg/m3 0 mg/m3 22.53 °C 91.23 % 1,011.13 mbar 0.67 m/s 262.17 Deg 0.84 µg/m3
2021-11-07 18:00 20.76 µg/m3 0.28 µg/m3 31.55 µg/m3 15.05 µg/m3 0 mg/m3 22.66 °C 91.33 % 1,011.17 mbar 1.09 m/s 283.68 Deg 3.68 µg/m3
2021-11-07 17:00 15.27 µg/m3 0.21 µg/m3 30.28 µg/m3 14.33 µg/m3 0 mg/m3 22.81 °C 87.52 % 1,010.69 mbar 0.95 m/s 268.44 Deg 2.22 µg/m3
2021-11-07 16:00 13.69 µg/m3 0.48 µg/m3 28.62 µg/m3 13.62 µg/m3 0 mg/m3 23.46 °C 85.32 % 1,011.81 mbar 2.63 m/s 192.01 Deg 6.59 µg/m3
2021-11-07 15:00 43.91 µg/m3 0.61 µg/m3 30.44 µg/m3 14.48 µg/m3 0 mg/m3 24.13 °C 81.91 % 1,011.14 mbar 2.67 m/s 183.4 Deg 35.76 µg/m3
2021-11-07 14:00 44.33 µg/m3 1.03 µg/m3 30.97 µg/m3 14.29 µg/m3 0 mg/m3 24.36 °C 79.24 % 1,011.59 mbar 3.46 m/s 183.46 Deg 48.53 µg/m3
2021-11-07 13:00 33.81 µg/m3 0.41 µg/m3 34.55 µg/m3 14.47 µg/m3 0 mg/m3 24.77 °C 76.58 % 1,011.36 mbar 2.63 m/s 179.18 Deg 23.14 µg/m3
2021-11-07 12:00 25.16 µg/m3 0.34 µg/m3 34.42 µg/m3 14.47 µg/m3 0 mg/m3 24.59 °C 76.74 % 1,011.83 mbar 2.79 m/s 171.74 Deg 11.67 µg/m3
2021-11-07 11:00 25.9 µg/m3 0.39 µg/m3 34.82 µg/m3 14.84 µg/m3 0 mg/m3 24.22 °C 76.81 % 1,012.27 mbar 2.46 m/s 184.79 Deg 11.05 µg/m3
2021-11-07 10:00 40.05 µg/m3 0.37 µg/m3 35.43 µg/m3 15.11 µg/m3 0 mg/m3 23.88 °C 76.68 % 1,012.59 mbar 2.75 m/s 171.38 Deg 16.89 µg/m3
2021-11-07 09:00 31.6 µg/m3 0.33 µg/m3 35.02 µg/m3 15.04 µg/m3 0 mg/m3 23.48 °C 76.54 % 1,012.39 mbar 2.27 m/s 168.38 Deg 11.7 µg/m3
2021-11-07 08:00 27.88 µg/m3 0.29 µg/m3 31.77 µg/m3 14.63 µg/m3 0 mg/m3 23.1 °C 76.77 % 1,011.98 mbar 1.57 m/s 168.51 Deg 7.77 µg/m3
2021-11-07 07:00 4.98 µg/m3 0.19 µg/m3 31.96 µg/m3 13.79 µg/m3 0 mg/m3 22.82 °C 75.61 % 1,011.43 mbar 1.04 m/s 209.93 Deg 1.21 µg/m3
2021-11-07 06:00 0.14 µg/m3 0.24 µg/m3 32.89 µg/m3 14.34 µg/m3 0 mg/m3 22.93 °C 75.04 % 1,010.95 mbar 0.74 m/s 314.61 Deg 0.48 µg/m3
2021-11-07 05:00 1.29 µg/m3 0.18 µg/m3 32.31 µg/m3 13.87 µg/m3 0 mg/m3 23 °C 74.58 % 1,010.84 mbar 0.88 m/s 289.14 Deg 0.97 µg/m3
2021-11-07 04:00 -0.17 µg/m3 0.2 µg/m3 31.13 µg/m3 14.2 µg/m3 0 mg/m3 22.93 °C 75.92 % 1,010.79 mbar 0.85 m/s 320.63 Deg 0.45 µg/m3
2021-11-07 03:00 0.41 µg/m3 0.21 µg/m3 31.62 µg/m3 14.84 µg/m3 0 mg/m3 22.76 °C 79.66 % 1,010.99 mbar 0.88 m/s 256.23 Deg 0.61 µg/m3
2021-11-07 02:00 5.39 µg/m3 0.21 µg/m3 30.96 µg/m3 14.5 µg/m3 0 mg/m3 22.82 °C 79.58 % 1,011.09 mbar 0.91 m/s 168.27 Deg 0.39 µg/m3
2021-11-07 01:00 0.71 µg/m3 0.17 µg/m3 30.51 µg/m3 13.32 µg/m3 0 mg/m3 23.07 °C 75.72 % 1,011.13 mbar 0.87 m/s 181.1 Deg 0.69 µg/m3
2021-11-07 00:00 1.76 µg/m3 0.19 µg/m3 30.45 µg/m3 12.87 µg/m3 0 mg/m3 23.18 °C 74.11 % 1,011.23 mbar 0.86 m/s 302.37 Deg 0.67 µg/m3
2021-11-06 23:00 2.59 µg/m3 0.17 µg/m3 30.9 µg/m3 13.01 µg/m3 0 mg/m3 23.2 °C 73.9 % 1,011.00 mbar 0.94 m/s 341.48 Deg 0.68 µg/m3
2021-11-06 22:00 3.67 µg/m3 0.19 µg/m3 31.45 µg/m3 13.56 µg/m3 0 mg/m3 23.24 °C 75.88 % 1,011.01 mbar 0.94 m/s 246.23 Deg 0.99 µg/m3
2021-11-06 21:00 5.69 µg/m3 0.25 µg/m3 31.61 µg/m3 13.52 µg/m3 0 mg/m3 23.41 °C 74.89 % 1,010.95 mbar 0.88 m/s 212.83 Deg 0.82 µg/m3
2021-11-06 20:00 14.46 µg/m3 0.24 µg/m3 30.3 µg/m3 13.77 µg/m3 0 mg/m3 23.48 °C 76.2 % 1,010.89 mbar 1.24 m/s 181.76 Deg 2.63 µg/m3
2021-11-06 19:00 8.19 µg/m3 0.24 µg/m3 32.7 µg/m3 14.22 µg/m3 0 mg/m3 23.54 °C 76.03 % 1,010.70 mbar 1 m/s 200.98 Deg 1.52 µg/m3
2021-11-06 18:00 10.34 µg/m3 0.27 µg/m3 35.41 µg/m3 14.37 µg/m3 0 mg/m3 23.71 °C 74.48 % 1,010.59 mbar 0.88 m/s 223.71 Deg 2.09 µg/m3
2021-11-06 17:00 30.96 µg/m3 0.47 µg/m3 37.01 µg/m3 14.94 µg/m3 0 mg/m3 24.47 °C 70.13 % 1,010.49 mbar 1.75 m/s 174.84 Deg 8.77 µg/m3
2021-11-06 16:00 49.36 µg/m3 0.8 µg/m3 39.21 µg/m3 15.31 µg/m3 0 mg/m3 25.17 °C 67.94 % 1,010.57 mbar 1.88 m/s 177.18 Deg 52.58 µg/m3
2021-11-06 15:00 45.87 µg/m3 0.61 µg/m3 39.18 µg/m3 15.54 µg/m3 0 mg/m3 25.35 °C 67.5 % 1,010.80 mbar 2.51 m/s 175.13 Deg 27.83 µg/m3
2021-11-06 14:00 44.81 µg/m3 0.64 µg/m3 35.89 µg/m3 14.59 µg/m3 0 mg/m3 25.36 °C 65.55 % 1,011.15 mbar 3.6 m/s 171.45 Deg 37 µg/m3
2021-11-06 13:00 43.04 µg/m3 0.52 µg/m3 36.71 µg/m3 14.86 µg/m3 0 mg/m3 25.26 °C 67.3 % 1,011.30 mbar 3.12 m/s 170.07 Deg 24.64 µg/m3
2021-11-06 12:00 47.81 µg/m3 0.67 µg/m3 39.89 µg/m3 15.93 µg/m3 0 mg/m3 25.07 °C 69.1 % 1,011.58 mbar 3.06 m/s 173.55 Deg 35.05 µg/m3
2021-11-06 11:00 36.82 µg/m3 0.53 µg/m3 42.29 µg/m3 15.06 µg/m3 0 mg/m3 25.18 °C 68.09 % 1,011.45 mbar 1.69 m/s 170.4 Deg 19.88 µg/m3
2021-11-06 10:00 34.49 µg/m3 0.49 µg/m3 41.03 µg/m3 13.74 µg/m3 0 mg/m3 25.48 °C 65.57 % 1,011.15 mbar 1.76 m/s 173.98 Deg 18.98 µg/m3
2021-11-06 09:00 21.13 µg/m3 0.35 µg/m3 37.1 µg/m3 14.17 µg/m3 0 mg/m3 24.63 °C 69.91 % 1,010.90 mbar 1.55 m/s 175.98 Deg 7.86 µg/m3
2021-11-06 08:00 22.69 µg/m3 0.24 µg/m3 34.47 µg/m3 13.79 µg/m3 0 mg/m3 23.79 °C 74.97 % 1,010.56 mbar 0.79 m/s 253.88 Deg 8.39 µg/m3
2021-11-06 07:00 28.66 µg/m3 0.27 µg/m3 32 µg/m3 15.08 µg/m3 0 mg/m3 22.96 °C 79.98 % 1,009.90 mbar 1.03 m/s 294.15 Deg 8.76 µg/m3
2021-11-06 06:00 17.5 µg/m3 0.23 µg/m3 33.65 µg/m3 16.15 µg/m3 0 mg/m3 22.52 °C 83.43 % 1,009.59 mbar 1 m/s 164.05 Deg 3.43 µg/m3
2021-11-06 05:00 16.49 µg/m3 0.17 µg/m3 36.52 µg/m3 17.87 µg/m3 0 mg/m3 22.17 °C 86.98 % 1,009.70 mbar 0.74 m/s 283.05 Deg 1.99 µg/m3
2021-11-06 04:00 22.3 µg/m3 0.22 µg/m3 38.89 µg/m3 19.73 µg/m3 0 mg/m3 21.63 °C 92.64 % 1,010.01 mbar 1.05 m/s 286.15 Deg 4.13 µg/m3
2021-11-06 03:00 13.36 µg/m3 0.15 µg/m3 42.48 µg/m3 21.82 µg/m3 0 mg/m3 21.42 °C 95.21 % 1,010.24 mbar 1.08 m/s 250 Deg 1.47 µg/m3
2021-11-06 02:00 10.97 µg/m3 0.22 µg/m3 46.5 µg/m3 22.94 µg/m3 0 mg/m3 21.53 °C 94.83 % 1,010.77 mbar 1.35 m/s 324.73 Deg 1.72 µg/m3
2021-11-06 01:00 16.23 µg/m3 0.18 µg/m3 40.47 µg/m3 20.16 µg/m3 0 mg/m3 21.62 °C 94.52 % 1,010.27 mbar 1.61 m/s 230.14 Deg 2.22 µg/m3
2021-11-06 00:00 27.4 µg/m3 0.2 µg/m3 31.6 µg/m3 15.29 µg/m3 0 mg/m3 21.83 °C 92.18 % 1,010.28 mbar 1.7 m/s 300.5 Deg 2.67 µg/m3
2021-11-05 23:00 26.2 µg/m3 0.2 µg/m3 29.46 µg/m3 13.82 µg/m3 0 mg/m3 21.84 °C 92.95 % 1,009.38 mbar 0.89 m/s 148.69 Deg 2.28 µg/m3
2021-11-05 22:00 48.67 µg/m3 0.37 µg/m3 35.67 µg/m3 16.8 µg/m3 0 mg/m3 22.47 °C 88.97 % 1,009.13 mbar 0.78 m/s 160.41 Deg 15.27 µg/m3
2021-11-05 21:00 51.09 µg/m3 0.69 µg/m3 35.72 µg/m3 16.87 µg/m3 0 mg/m3 22.11 °C 90.37 % 1,008.75 mbar 1.31 m/s 214.54 Deg 35.76 µg/m3
2021-11-05 20:00 42.82 µg/m3 0.46 µg/m3 31.2 µg/m3 14.85 µg/m3 0 mg/m3 21.71 °C 95.54 % 1,009.22 mbar 0.56 m/s 231.94 Deg 19.88 µg/m3
2021-11-05 19:00 32.04 µg/m3 0.27 µg/m3 27.29 µg/m3 13.23 µg/m3 0 mg/m3 21.63 °C 97.39 % 1,009.01 mbar 1.03 m/s 200.97 Deg 3.55 µg/m3
2021-11-05 18:00 46.51 µg/m3 0.38 µg/m3 32.02 µg/m3 15.27 µg/m3 0 mg/m3 21.67 °C 96.89 % 1,009.03 mbar 0.69 m/s 293.35 Deg 21.6 µg/m3
2021-11-05 17:00 35.88 µg/m3 0.33 µg/m3 34.05 µg/m3 15.91 µg/m3 0 mg/m3 21.61 °C 96.19 % 1,008.58 mbar 0.44 m/s 167.27 Deg 8.26 µg/m3
2021-11-05 16:00 26.44 µg/m3 0.31 µg/m3 32.67 µg/m3 15.19 µg/m3 0 mg/m3 21.35 °C 96.56 % 1,008.57 mbar 0.85 m/s 130.32 Deg 8.17 µg/m3
2021-11-05 15:00 26.98 µg/m3 0.27 µg/m3 41.7 µg/m3 19.72 µg/m3 0 mg/m3 21.52 °C 93.92 % 1,008.59 mbar 0.9 m/s 144.85 Deg 5.12 µg/m3
2021-11-05 14:00 25.82 µg/m3 0.25 µg/m3 35.98 µg/m3 16.83 µg/m3 0 mg/m3 21.9 °C 90.8 % 1,008.81 mbar 0.78 m/s 280.96 Deg 5.8 µg/m3
2021-11-05 13:00 16.25 µg/m3 0.22 µg/m3 31.12 µg/m3 14.36 µg/m3 0 mg/m3 21.64 °C 91.43 % 1,009.26 mbar 1.08 m/s 267.16 Deg 3.23 µg/m3
2021-11-05 12:00 18.02 µg/m3 0.21 µg/m3 28.7 µg/m3 13.21 µg/m3 0 mg/m3 21.15 °C 93.07 % 1,010.33 mbar 1.17 m/s 266.52 Deg 4.7 µg/m3
2021-11-05 11:00 18.82 µg/m3 0.26 µg/m3 28.21 µg/m3 12.97 µg/m3 0 mg/m3 20.83 °C 92.96 % 1,010.88 mbar 1.2 m/s 236.31 Deg 3.72 µg/m3
2021-11-05 10:00 17.31 µg/m3 0.31 µg/m3 29.04 µg/m3 13.54 µg/m3 0 mg/m3 20.61 °C 95.58 % 1,011.37 mbar 0.87 m/s 259.79 Deg 3.24 µg/m3
2021-11-05 09:00 54.93 µg/m3 1.29 µg/m3 36.2 µg/m3 17.94 µg/m3 0 mg/m3 19.83 °C 98.36 % 1,010.28 mbar 0.89 m/s 177.23 Deg 87.77 µg/m3
2021-11-05 08:00 75.49 µg/m3 2.32 µg/m3 33.94 µg/m3 19.16 µg/m3 0 mg/m3 18.21 °C 99.88 % 1,009.47 mbar 1.03 m/s 198.35 Deg 196.05 µg/m3
2021-11-05 07:00 56.25 µg/m3 1.35 µg/m3 28.31 µg/m3 17.08 µg/m3 0 mg/m3 18.1 °C 99.3 % 1,009.28 mbar 0.75 m/s 196.23 Deg 101.76 µg/m3
2021-11-05 06:00 47.96 µg/m3 0.86 µg/m3 26.04 µg/m3 14.23 µg/m3 0 mg/m3 18.49 °C 98.44 % 1,009.35 mbar 1.59 m/s 196.34 Deg 60.9 µg/m3
2021-11-05 05:00 37.45 µg/m3 0.69 µg/m3 22.3 µg/m3 11.79 µg/m3 0 mg/m3 18.36 °C 98.19 % 1,009.58 mbar 2.25 m/s 199.02 Deg 30.46 µg/m3
2021-11-05 04:00 33.51 µg/m3 0.6 µg/m3 24.7 µg/m3 12.31 µg/m3 0 mg/m3 18.73 °C 97.5 % 1,009.43 mbar 1.04 m/s 208.19 Deg 18.54 µg/m3
2021-11-05 03:00 43.57 µg/m3 0.79 µg/m3 26.33 µg/m3 13.05 µg/m3 0 mg/m3 19.29 °C 96.09 % 1,009.58 mbar 1.2 m/s 201.59 Deg 38.59 µg/m3
2021-11-05 02:00 55.21 µg/m3 0.71 µg/m3 25.37 µg/m3 12.25 µg/m3 0 mg/m3 19.88 °C 94.6 % 1,009.51 mbar 0.88 m/s 201.43 Deg 38.56 µg/m3
2021-11-05 01:00 41.15 µg/m3 0.45 µg/m3 24.57 µg/m3 11.5 µg/m3 0 mg/m3 20.52 °C 92.4 % 1,009.51 mbar 0.14 m/s 191.41 Deg 23.05 µg/m3
2021-11-05 00:00 27.92 µg/m3 0.24 µg/m3 26.65 µg/m3 12.25 µg/m3 0 mg/m3 20.92 °C 91.06 % 1,009.65 mbar 0.33 m/s 229.88 Deg 1.42 µg/m3
2021-11-04 23:00 31.89 µg/m3 0.35 µg/m3 28.13 µg/m3 12.99 µg/m3 0 mg/m3 21.4 °C 89.65 % 1,009.48 mbar 1.43 m/s 211.64 Deg 3.47 µg/m3
2021-11-04 22:00 24.39 µg/m3 0.27 µg/m3 38.38 µg/m3 18.2 µg/m3 0 mg/m3 22.06 °C 89.2 % 1,009.12 mbar 3.47 m/s 194.79 Deg 2.88 µg/m3
2021-11-04 21:00 22.42 µg/m3 0.27 µg/m3 72.6 µg/m3 35.55 µg/m3 0 mg/m3 22.6 °C 85.82 % 1,008.84 mbar 3.21 m/s 200.13 Deg 1.07 µg/m3
2021-11-04 20:00 34.33 µg/m3 0.36 µg/m3 67.38 µg/m3 32.87 µg/m3 0 mg/m3 23.2 °C 79.65 % 1,008.16 mbar 3.53 m/s 193.25 Deg 2.66 µg/m3
2021-11-04 19:00 38.81 µg/m3 0.48 µg/m3 56.03 µg/m3 22.82 µg/m3 0 mg/m3 23.73 °C 76.25 % 1,007.59 mbar 3.87 m/s 183.34 Deg 6.76 µg/m3
2021-11-04 18:00 51.84 µg/m3 0.76 µg/m3 45.78 µg/m3 19.68 µg/m3 0 mg/m3 23.92 °C 75.08 % 1,007.00 mbar 4.58 m/s 184.51 Deg 27.94 µg/m3
2021-11-04 17:00 75.81 µg/m3 1.43 µg/m3 48.42 µg/m3 19.39 µg/m3 0 mg/m3 24.35 °C 72.75 % 1,006.39 mbar 4.28 m/s 183.34 Deg 83.56 µg/m3
2021-11-04 16:00 67.52 µg/m3 1.1 µg/m3 48.1 µg/m3 17.95 µg/m3 0 mg/m3 25.39 °C 66.88 % 1,006.26 mbar 4.92 m/s 189.28 Deg 57.17 µg/m3
2021-11-04 15:00 69.41 µg/m3 1.17 µg/m3 53.27 µg/m3 17.76 µg/m3 0 mg/m3 25.98 °C 62.63 % 1,006.12 mbar 4.35 m/s 185.88 Deg 73.91 µg/m3
2021-11-04 14:00 54.68 µg/m3 0.84 µg/m3 46.57 µg/m3 15.17 µg/m3 0 mg/m3 26.15 °C 61.98 % 1,006.51 mbar 5.47 m/s 186.24 Deg 48.82 µg/m3
2021-11-04 13:00 59.85 µg/m3 0.94 µg/m3 44.8 µg/m3 16.68 µg/m3 0 mg/m3 25.85 °C 66.41 % 1,006.65 mbar 4.75 m/s 176.11 Deg 68.06 µg/m3
2021-11-04 12:00 66.27 µg/m3 1.16 µg/m3 44.13 µg/m3 18.17 µg/m3 0 mg/m3 25.69 °C 69.63 % 1,007.20 mbar 4.49 m/s 167.11 Deg 94.32 µg/m3
2021-11-04 11:00 59.6 µg/m3 0.99 µg/m3 43.53 µg/m3 18.4 µg/m3 0 mg/m3 25.34 °C 70.71 % 1,007.67 mbar 4.63 m/s 168.2 Deg 82.71 µg/m3
2021-11-04 10:00 54.13 µg/m3 0.74 µg/m3 42.39 µg/m3 18.44 µg/m3 0 mg/m3 24.91 °C 73.31 % 1,007.67 mbar 4.43 m/s 172.93 Deg 54.95 µg/m3
2021-11-04 09:00 59.76 µg/m3 0.98 µg/m3 45.03 µg/m3 19.53 µg/m3 0 mg/m3 24.62 °C 75.83 % 1,007.68 mbar 4.37 m/s 168.12 Deg 76.85 µg/m3
2021-11-04 08:00 65.86 µg/m3 1.15 µg/m3 42.2 µg/m3 20.15 µg/m3 0 mg/m3 24.04 °C 79.03 % 1,007.26 mbar 4.05 m/s 168.89 Deg 87.35 µg/m3
2021-11-04 07:00 63.46 µg/m3 1.24 µg/m3 40.84 µg/m3 19.45 µg/m3 0 mg/m3 23.65 °C 80.45 % 1,006.98 mbar 3.83 m/s 170.08 Deg 95.79 µg/m3
2021-11-04 06:00 55.54 µg/m3 1.18 µg/m3 39.3 µg/m3 18.55 µg/m3 0 mg/m3 23.7 °C 79.47 % 1,007.12 mbar 4.14 m/s 169.23 Deg 64.04 µg/m3
2021-11-04 05:00 54.03 µg/m3 1.25 µg/m3 39.07 µg/m3 18.4 µg/m3 0 mg/m3 23.69 °C 79.39 % 1,007.42 mbar 4.18 m/s 170.18 Deg 67.63 µg/m3
2021-11-04 04:00 58.51 µg/m3 1.28 µg/m3 38.91 µg/m3 18.32 µg/m3 0 mg/m3 23.65 °C 78.54 % 1,007.63 mbar 4.01 m/s 170.16 Deg 72.47 µg/m3
2021-11-04 03:00 50.65 µg/m3 0.87 µg/m3 37.81 µg/m3 17.76 µg/m3 0 mg/m3 23.65 °C 78.32 % 1,008.04 mbar 4.02 m/s 171.08 Deg 51.25 µg/m3
2021-11-04 02:00 61.02 µg/m3 0.94 µg/m3 38.69 µg/m3 18.19 µg/m3 0 mg/m3 23.3 °C 80.8 % 1,008.47 mbar 3.36 m/s 172.53 Deg 60.71 µg/m3
2021-11-04 01:00 58.96 µg/m3 0.54 µg/m3 39.21 µg/m3 18.46 µg/m3 0 mg/m3 22.84 °C 84.63 % 1,008.63 mbar 2.86 m/s 174.81 Deg 30.83 µg/m3
2021-11-04 00:00 67.02 µg/m3 0.51 µg/m3 41.84 µg/m3 19.78 µg/m3 0 mg/m3 22.65 °C 88.02 % 1,009.00 mbar 1.98 m/s 172.08 Deg 23.25 µg/m3
2021-11-03 23:00 49.74 µg/m3 0.38 µg/m3 39.47 µg/m3 18.78 µg/m3 0 mg/m3 22.54 °C 91.46 % 1,009.32 mbar 3.2 m/s 177.93 Deg 12.99 µg/m3
2021-11-03 22:00 72.46 µg/m3 0.6 µg/m3 39.86 µg/m3 19.38 µg/m3 0 mg/m3 22.43 °C 93.97 % 1,009.20 mbar 3.14 m/s 175.59 Deg 37.81 µg/m3
2021-11-03 21:00 86.74 µg/m3 0.84 µg/m3 40 µg/m3 19.85 µg/m3 0 mg/m3 22.43 °C 94.03 % 1,009.18 mbar 2.97 m/s 172.8 Deg 48.29 µg/m3
2021-11-03 20:00 59.87 µg/m3 0.42 µg/m3 40.37 µg/m3 19.48 µg/m3 0 mg/m3 22.47 °C 93.15 % 1,009.14 mbar 2.08 m/s 171.28 Deg 13.75 µg/m3
2021-11-03 19:00 5.17 µg/m3 0.51 µg/m3 37.95 µg/m3 18.64 µg/m3 0 mg/m3 22.65 °C 91.53 % 1,008.81 mbar 3.52 m/s 170.05 Deg 3.1 µg/m3
2021-11-03 18:00 -3.83 µg/m3 0.94 µg/m3 39.31 µg/m3 19.69 µg/m3 0 mg/m3 22.85 °C 91 % 1,008.70 mbar 3.54 m/s 167.48 Deg 0.51 µg/m3
2021-11-03 17:00 -3.72 µg/m3 0.86 µg/m3 38.68 µg/m3 18.67 µg/m3 0 mg/m3 23.48 °C 88.67 % 1,008.81 mbar 3.35 m/s 169.34 Deg 0.57 µg/m3
2021-11-03 16:00 -3.67 µg/m3 0.83 µg/m3 36.78 µg/m3 17.56 µg/m3 0 mg/m3 24.13 °C 85.48 % 1,009.14 mbar 3.56 m/s 168.75 Deg 0.44 µg/m3
2021-11-03 15:00 -3.73 µg/m3 0.66 µg/m3 27.75 µg/m3 13.11 µg/m3 0 mg/m3 24.12 °C 85.25 % 1,009.47 mbar 3.96 m/s 168.76 Deg 0.27 µg/m3
2021-11-03 14:00 -3.61 µg/m3 0.56 µg/m3 21.13 µg/m3 9.02 µg/m3 0 mg/m3 24.28 °C 79.05 % 1,009.91 mbar 4.34 m/s 167.01 Deg 0.55 µg/m3
2021-11-03 13:00 -3.34 µg/m3 0.47 µg/m3 21.68 µg/m3 7.38 µg/m3 0 mg/m3 24.11 °C 72.94 % 1,010.60 mbar 4.71 m/s 168.38 Deg 0.29 µg/m3
2021-11-03 12:00 -3.48 µg/m3 0.61 µg/m3 20.16 µg/m3 6.95 µg/m3 0 mg/m3 23.72 °C 73.37 % 1,011.37 mbar 4.85 m/s 168.73 Deg 0.2 µg/m3
2021-11-03 11:00 -3.18 µg/m3 0.79 µg/m3 20.8 µg/m3 7.43 µg/m3 0 mg/m3 23.32 °C 74.31 % 1,011.85 mbar 4.65 m/s 169.03 Deg 0.47 µg/m3
2021-11-03 10:00 -3.26 µg/m3 0.83 µg/m3 18.47 µg/m3 7.11 µg/m3 0 mg/m3 22.88 °C 75.39 % 1,011.92 mbar 3.31 m/s 168.84 Deg 0.33 µg/m3
2021-11-03 09:00 -3.13 µg/m3 0.94 µg/m3 18.24 µg/m3 7.68 µg/m3 0 mg/m3 22.18 °C 76.88 % 1,011.81 mbar 2.47 m/s 170.91 Deg 0.56 µg/m3
2021-11-03 08:00 -2.85 µg/m3 1.24 µg/m3 18 µg/m3 7.84 µg/m3 0 mg/m3 20.92 °C 81.4 % 1,011.33 mbar 1.58 m/s 180.08 Deg 0.44 µg/m3
2021-11-03 07:00 -2.79 µg/m3 0.99 µg/m3 15.82 µg/m3 7.22 µg/m3 0 mg/m3 20.47 °C 82.97 % 1,011.04 mbar 2.05 m/s 173.23 Deg 0.55 µg/m3
2021-11-03 06:00 -2.39 µg/m3 1.17 µg/m3 15.8 µg/m3 7.52 µg/m3 0 mg/m3 19.96 °C 84.41 % 1,011.06 mbar 1.42 m/s 209.7 Deg 0.13 µg/m3
2021-11-03 05:00 -2.28 µg/m3 0.83 µg/m3 13.9 µg/m3 6.15 µg/m3 0 mg/m3 19.16 °C 86.78 % 1,011.29 mbar 1.25 m/s 182.89 Deg 0 µg/m3
2021-11-03 04:00 -1.83 µg/m3 0.56 µg/m3 15.74 µg/m3 6.88 µg/m3 0 mg/m3 18.46 °C 89.31 % 1,011.31 mbar 1.07 m/s 193.83 Deg 0 µg/m3
2021-11-03 03:00 5.83 µg/m3 0.59 µg/m3 16.99 µg/m3 7.64 µg/m3 0 mg/m3 18.41 °C 86.99 % 1,011.70 mbar 1.31 m/s 201.37 Deg 0 µg/m3
2021-11-03 02:00 39.62 µg/m3 0.44 µg/m3 15.81 µg/m3 6.75 µg/m3 0 mg/m3 18.34 °C 83.07 % 1,011.94 mbar 1.34 m/s 192.39 Deg 0 µg/m3
2021-11-03 01:00 47.52 µg/m3 0.46 µg/m3 16.91 µg/m3 7.23 µg/m3 0 mg/m3 18.19 °C 80.76 % 1,012.27 mbar 1.77 m/s 195.89 Deg 0 µg/m3
2021-11-03 00:00 32.73 µg/m3 0.31 µg/m3 19.18 µg/m3 8.41 µg/m3 0 mg/m3 17.92 °C 81.76 % 1,012.35 mbar 2.16 m/s 195.38 Deg 0 µg/m3
2021-11-02 23:00 45.81 µg/m3 0.38 µg/m3 23.82 µg/m3 10.71 µg/m3 0 mg/m3 18.3 °C 82.25 % 1,012.55 mbar 2.28 m/s 197.5 Deg 1.5 µg/m3
2021-11-02 22:00 60.41 µg/m3 0.48 µg/m3 24.19 µg/m3 10.46 µg/m3 0 mg/m3 18.71 °C 80.44 % 1,012.51 mbar 2.66 m/s 205.55 Deg 20.3 µg/m3
2021-11-02 21:00 74.31 µg/m3 0.54 µg/m3 34.48 µg/m3 11.46 µg/m3 0 mg/m3 19.7 °C 74.19 % 1,012.26 mbar 2.15 m/s 200.99 Deg 17.93 µg/m3
2021-11-02 20:00 68.14 µg/m3 0.47 µg/m3 31.04 µg/m3 8.86 µg/m3 0 mg/m3 20.53 °C 68.28 % 1,011.98 mbar 1.75 m/s 213.04 Deg 14.71 µg/m3
2021-11-02 19:00 29.17 µg/m3 0.27 µg/m3 16.53 µg/m3 5.19 µg/m3 0 mg/m3 20.92 °C 64.32 % 1,011.57 mbar 1.14 m/s 278.97 Deg 2.43 µg/m3
2021-11-02 18:00 26.75 µg/m3 0.24 µg/m3 16.11 µg/m3 4.89 µg/m3 0 mg/m3 21.26 °C 61.93 % 1,011.08 mbar 2.01 m/s 258.63 Deg 2.95 µg/m3
2021-11-02 17:00 23.14 µg/m3 0.28 µg/m3 14.63 µg/m3 4.74 µg/m3 0 mg/m3 21.96 °C 60.57 % 1,010.62 mbar 4.05 m/s 253.87 Deg 3.24 µg/m3
2021-11-02 16:00 11.6 µg/m3 0.25 µg/m3 13.6 µg/m3 4.45 µg/m3 0 mg/m3 22.41 °C 59.13 % 1,010.44 mbar 5 m/s 269.92 Deg 2.42 µg/m3
2021-11-02 15:00 13.36 µg/m3 0.28 µg/m3 13.41 µg/m3 4.59 µg/m3 0 mg/m3 22.61 °C 57.63 % 1,010.37 mbar 5.21 m/s 264.9 Deg 3.84 µg/m3
2021-11-02 14:00 11.99 µg/m3 0.28 µg/m3 13.6 µg/m3 4.52 µg/m3 0 mg/m3 22.76 °C 54.89 % 1,010.42 mbar 5.67 m/s 261.08 Deg 3.39 µg/m3
2021-11-02 13:00 9.96 µg/m3 0.25 µg/m3 12.26 µg/m3 3.76 µg/m3 0 mg/m3 22.78 °C 49.54 % 1,010.60 mbar 4.77 m/s 267.43 Deg 3.57 µg/m3
2021-11-02 12:00 12.18 µg/m3 0.26 µg/m3 13.85 µg/m3 4.43 µg/m3 0 mg/m3 22.46 °C 53.67 % 1,011.00 mbar 4.91 m/s 262.57 Deg 5.4 µg/m3
2021-11-02 11:00 11.27 µg/m3 0.27 µg/m3 18.01 µg/m3 6.76 µg/m3 0 mg/m3 22.03 °C 68.02 % 1,011.04 mbar 4.03 m/s 275.67 Deg 3.93 µg/m3
2021-11-02 10:00 15.32 µg/m3 0.28 µg/m3 18.38 µg/m3 7.31 µg/m3 0 mg/m3 21.83 °C 74.23 % 1,010.69 mbar 3.85 m/s 272.4 Deg 4.43 µg/m3
2021-11-02 09:00 18.4 µg/m3 0.37 µg/m3 17.6 µg/m3 6.73 µg/m3 0 mg/m3 21.8 °C 74.81 % 1,010.20 mbar 4.67 m/s 268.42 Deg 5.59 µg/m3
2021-11-02 08:00 29.2 µg/m3 0.44 µg/m3 16.24 µg/m3 6.66 µg/m3 0 mg/m3 21.98 °C 76.84 % 1,009.58 mbar 4.18 m/s 236.38 Deg 6.28 µg/m3
2021-11-02 07:00 43.35 µg/m3 0.6 µg/m3 20.21 µg/m3 9.78 µg/m3 0 mg/m3 22.17 °C 85.75 % 1,009.03 mbar 3.24 m/s 212.23 Deg 8.48 µg/m3
2021-11-02 06:00 50.61 µg/m3 1.47 µg/m3 21.26 µg/m3 10.03 µg/m3 0 mg/m3 22.19 °C 86.22 % 1,008.58 mbar 3.18 m/s 198.61 Deg 14.67 µg/m3
2021-11-02 05:00 41.48 µg/m3 0.64 µg/m3 23.19 µg/m3 10.81 µg/m3 0 mg/m3 22.23 °C 87.74 % 1,008.25 mbar 3.27 m/s 197.14 Deg 8.72 µg/m3
2021-11-02 04:00 11 µg/m3 0.2 µg/m3 16.36 µg/m3 7.45 µg/m3 0 mg/m3 22.5 °C 84.61 % 1,008.14 mbar 3.66 m/s 215.08 Deg 0.67 µg/m3
2021-11-02 03:00 23.87 µg/m3 0.18 µg/m3 15.72 µg/m3 7.13 µg/m3 0 mg/m3 22.31 °C 85.57 % 1,008.02 mbar 3.75 m/s 208.33 Deg 2.46 µg/m3
2021-11-02 02:00 44.46 µg/m3 0.43 µg/m3 17.6 µg/m3 8.38 µg/m3 0 mg/m3 22.17 °C 90.6 % 1,008.03 mbar 3.25 m/s 199.94 Deg 17.75 µg/m3
2021-11-02 01:00 54.05 µg/m3 0.52 µg/m3 18.02 µg/m3 8.76 µg/m3 0 mg/m3 22.41 °C 90.55 % 1,008.51 mbar 4.35 m/s 194.43 Deg 32.4 µg/m3
2021-11-02 00:00 37.93 µg/m3 0.19 µg/m3 16.15 µg/m3 7.33 µg/m3 0 mg/m3 22.42 °C 88.64 % 1,009.06 mbar 4.03 m/s 194.02 Deg 3.64 µg/m3
2021-11-01 23:00 45.64 µg/m3 0.28 µg/m3 17.94 µg/m3 7.91 µg/m3 0 mg/m3 22.14 °C 85.39 % 1,009.28 mbar 2.97 m/s 192.14 Deg 5.76 µg/m3
2021-11-01 22:00 49.48 µg/m3 0.32 µg/m3 20.35 µg/m3 8.95 µg/m3 0 mg/m3 22.02 °C 85.12 % 1,008.99 mbar 2.56 m/s 189.69 Deg 12.53 µg/m3
2021-11-01 21:00 54.64 µg/m3 0.32 µg/m3 21.69 µg/m3 9.72 µg/m3 0 mg/m3 21.94 °C 86.71 % 1,008.95 mbar 2.68 m/s 194.39 Deg 13.65 µg/m3
2021-11-01 20:00 62.8 µg/m3 0.44 µg/m3 22.23 µg/m3 10.13 µg/m3 0 mg/m3 21.74 °C 86.88 % 1,008.94 mbar 2.29 m/s 196.37 Deg 14.95 µg/m3
2021-11-01 19:00 69.38 µg/m3 0.45 µg/m3 22.59 µg/m3 10.23 µg/m3 0 mg/m3 22.04 °C 84.18 % 1,008.60 mbar 2.22 m/s 197.18 Deg 23.97 µg/m3
2021-11-01 18:00 37.94 µg/m3 0.22 µg/m3 18.28 µg/m3 8 µg/m3 0 mg/m3 22.39 °C 81.28 % 1,008.02 mbar 2.42 m/s 226.51 Deg 6.04 µg/m3
2021-11-01 17:00 26.23 µg/m3 0.22 µg/m3 16.34 µg/m3 7.18 µg/m3 0 mg/m3 22.67 °C 81.36 % 1,007.98 mbar 3.49 m/s 230.4 Deg 5.51 µg/m3
2021-11-01 16:00 17.98 µg/m3 0.18 µg/m3 14.55 µg/m3 6.13 µg/m3 0 mg/m3 22.84 °C 78.02 % 1,007.81 mbar 4.43 m/s 248.47 Deg 5.37 µg/m3
2021-11-01 15:00 12.68 µg/m3 0.22 µg/m3 14.93 µg/m3 6.5 µg/m3 0 mg/m3 22.76 °C 79.44 % 1,007.54 mbar 4.83 m/s 245.58 Deg 4.05 µg/m3
2021-11-01 14:00 15.69 µg/m3 0.27 µg/m3 13.83 µg/m3 6.22 µg/m3 0 mg/m3 22.87 °C 79.36 % 1,007.83 mbar 5.79 m/s 229.02 Deg 10.78 µg/m3
2021-11-01 13:00 9.83 µg/m3 0.18 µg/m3 16.22 µg/m3 7.75 µg/m3 0 mg/m3 22.9 °C 80.61 % 1,008.16 mbar 5.58 m/s 241.33 Deg 4.09 µg/m3
2021-11-01 12:00 15.81 µg/m3 0.21 µg/m3 17.49 µg/m3 8.66 µg/m3 0 mg/m3 22.78 °C 81.44 % 1,008.51 mbar 5.56 m/s 243.09 Deg 6.93 µg/m3
2021-11-01 11:00 16.27 µg/m3 0.22 µg/m3 15.41 µg/m3 7.59 µg/m3 0 mg/m3 22.53 °C 82.64 % 1,008.82 mbar 5.36 m/s 236.86 Deg 6.94 µg/m3
2021-11-01 10:00 26.56 µg/m3 0.28 µg/m3 17.12 µg/m3 7.87 µg/m3 0 mg/m3 21.45 °C 87.95 % 1,008.77 mbar 2.92 m/s 227.03 Deg 9.68 µg/m3
2021-11-01 09:00 44.26 µg/m3 0.35 µg/m3 22.86 µg/m3 11.05 µg/m3 0 mg/m3 21.22 °C 88.68 % 1,008.60 mbar 2.52 m/s 202.15 Deg 9.29 µg/m3
2021-11-01 08:00 46.09 µg/m3 0.34 µg/m3 18.58 µg/m3 9.39 µg/m3 0 mg/m3 21.42 °C 90.61 % 1,008.28 mbar 2.47 m/s 181.91 Deg 6.59 µg/m3
2021-11-01 07:00 58.48 µg/m3 0.85 µg/m3 18.82 µg/m3 10.08 µg/m3 0 mg/m3 20.57 °C 92.36 % 1,008.11 mbar 1.82 m/s 179.35 Deg 19.76 µg/m3
2021-11-01 06:00 67.53 µg/m3 0.67 µg/m3 19.81 µg/m3 11.21 µg/m3 0 mg/m3 19.81 °C 91.95 % 1,008.35 mbar 1.68 m/s 187.93 Deg 52.5 µg/m3
2021-11-01 05:00 8.88 µg/m3 0.14 µg/m3 14.71 µg/m3 7.2 µg/m3 0 mg/m3 19.27 °C 89.99 % 1,008.69 mbar 0.68 m/s 282.63 Deg 1.14 µg/m3
2021-11-01 04:00 1.65 µg/m3 0.14 µg/m3 14.36 µg/m3 7.04 µg/m3 0 mg/m3 18.79 °C 92.2 % 1,009.26 mbar 0.4 m/s 179.12 Deg 0.55 µg/m3
2021-11-01 03:00 2.35 µg/m3 0.14 µg/m3 13.89 µg/m3 6.88 µg/m3 0 mg/m3 18.41 °C 93.05 % 1,010.00 mbar 0.38 m/s 252.81 Deg 0.31 µg/m3
2021-11-01 02:00 10.3 µg/m3 0.19 µg/m3 14.83 µg/m3 7.61 µg/m3 0 mg/m3 18.15 °C 93.59 % 1,010.50 mbar 0.3 m/s 161.36 Deg 0.7 µg/m3
2021-11-01 01:00 25.16 µg/m3 0.26 µg/m3 16.13 µg/m3 8.45 µg/m3 0 mg/m3 17.84 °C 92.95 % 1,011.33 mbar 0.26 m/s 273.11 Deg 1.26 µg/m3
2021-11-01 00:00 26.67 µg/m3 0.24 µg/m3 17.6 µg/m3 9.41 µg/m3 0 mg/m3 17.58 °C 94.28 % 1,011.61 mbar 0.42 m/s 268.43 Deg 1.33 µg/m3
2021-10-31 23:00 29.55 µg/m3 0.21 µg/m3 16.95 µg/m3 8.96 µg/m3 0 mg/m3 17.56 °C 93.94 % 1,012.26 mbar 0.16 m/s 288.42 Deg 2.18 µg/m3
2021-10-31 22:00 34.97 µg/m3 0.23 µg/m3 16.59 µg/m3 8.55 µg/m3 0 mg/m3 18.09 °C 90.86 % 1,012.95 mbar 1.04 m/s 275.34 Deg 4.33 µg/m3
2021-10-31 21:00 46.35 µg/m3 0.29 µg/m3 17.92 µg/m3 9.79 µg/m3 0 mg/m3 19.31 °C 92.43 % 1,012.87 mbar 0.65 m/s 189.65 Deg 7.08 µg/m3
2021-10-31 20:00 61.41 µg/m3 0.35 µg/m3 16.73 µg/m3 8.85 µg/m3 0 mg/m3 19.41 °C 90.11 % 1,012.96 mbar 0.98 m/s 176.74 Deg 7.88 µg/m3
2021-10-31 19:00 69.36 µg/m3 0.47 µg/m3 18.28 µg/m3 9.89 µg/m3 0 mg/m3 19.91 °C 87.13 % 1,012.88 mbar 1.32 m/s 169.58 Deg 27.97 µg/m3
2021-10-31 18:00 39.38 µg/m3 0.31 µg/m3 21.42 µg/m3 11.04 µg/m3 0 mg/m3 20 °C 87.8 % 1,012.24 mbar 0.93 m/s 179.27 Deg 6.58 µg/m3
2021-10-31 17:00 37.19 µg/m3 0.3 µg/m3 24.58 µg/m3 12.8 µg/m3 0 mg/m3 20.27 °C 86.74 % 1,012.42 mbar 1.2 m/s 183.45 Deg 7.79 µg/m3
2021-10-31 16:00 34.94 µg/m3 0.26 µg/m3 26.8 µg/m3 13.83 µg/m3 0 mg/m3 20.1 °C 88.06 % 1,012.47 mbar 0.88 m/s 175.12 Deg 6.7 µg/m3
2021-10-31 15:00 40.36 µg/m3 0.35 µg/m3 21.25 µg/m3 11.35 µg/m3 0 mg/m3 19.95 °C 88.6 % 1,012.78 mbar 1.29 m/s 194.72 Deg 14.77 µg/m3
2021-10-31 14:00 21.47 µg/m3 0.2 µg/m3 29.14 µg/m3 14.12 µg/m3 0 mg/m3 20.72 °C 83.8 % 1,013.22 mbar 0.33 m/s 232.97 Deg 3.74 µg/m3
2021-10-31 13:00 23.03 µg/m3 0.24 µg/m3 29.55 µg/m3 13.96 µg/m3 0 mg/m3 20.94 °C 82.37 % 1,013.80 mbar 0.53 m/s 245.27 Deg 3.21 µg/m3
2021-10-31 12:00 26.19 µg/m3 0.23 µg/m3 29.09 µg/m3 13.83 µg/m3 0 mg/m3 20.98 °C 82.94 % 1,014.60 mbar 0.58 m/s 252.72 Deg 4.85 µg/m3
2021-10-31 11:00 43.54 µg/m3 0.31 µg/m3 23.58 µg/m3 11.62 µg/m3 0 mg/m3 20.38 °C 83.77 % 1,015.02 mbar 0.83 m/s 190.42 Deg 11.38 µg/m3
2021-10-31 10:00 23.27 µg/m3 0.28 µg/m3 29.92 µg/m3 15.94 µg/m3 0 mg/m3 19.7 °C 91.25 % 1,015.31 mbar 0.31 m/s 162.32 Deg 6.67 µg/m3
2021-10-31 09:00 49.84 µg/m3 0.54 µg/m3 29.16 µg/m3 16.85 µg/m3 0 mg/m3 18.88 °C 95.52 % 1,015.39 mbar 0.89 m/s 238.48 Deg 24.73 µg/m3
2021-10-31 08:00 64.28 µg/m3 0.74 µg/m3 28.71 µg/m3 17.24 µg/m3 0 mg/m3 18.44 °C 97.12 % 1,015.31 mbar 1 m/s 204.83 Deg 41.02 µg/m3
2021-10-31 07:00 68.42 µg/m3 0.48 µg/m3 24.93 µg/m3 15 µg/m3 0 mg/m3 18.36 °C 97.62 % 1,014.88 mbar 1.73 m/s 200.68 Deg 30.82 µg/m3
2021-10-31 06:00 58.94 µg/m3 0.36 µg/m3 22.72 µg/m3 13.57 µg/m3 0 mg/m3 18.57 °C 97.42 % 1,014.64 mbar 0.3 m/s 221.9 Deg 13.03 µg/m3
2021-10-31 05:00 49.77 µg/m3 0.3 µg/m3 20.67 µg/m3 12.05 µg/m3 0 mg/m3 18.58 °C 96.46 % 1,014.88 mbar 0.3 m/s 245.58 Deg 2.13 µg/m3
2021-10-31 04:00 33.8 µg/m3 0.36 µg/m3 26.59 µg/m3 14.94 µg/m3 0 mg/m3 18.73 °C 93.78 % 1,014.97 mbar 1.04 m/s 196.66 Deg 10.42 µg/m3
2021-10-31 03:00 52.77 µg/m3 0.7 µg/m3 27.22 µg/m3 15.21 µg/m3 0 mg/m3 18.69 °C 93.3 % 1,015.01 mbar 1.71 m/s 196.7 Deg 40.47 µg/m3
2021-10-31 02:00 61.77 µg/m3 0.74 µg/m3 27.06 µg/m3 14.91 µg/m3 0 mg/m3 18.99 °C 91.61 % 1,015.09 mbar 0.14 m/s 159.94 Deg 49.02 µg/m3
2021-10-31 01:00 58.59 µg/m3 0.61 µg/m3 26.82 µg/m3 14.64 µg/m3 0 mg/m3 18.93 °C 91.46 % 1,015.26 mbar 1.01 m/s 189.65 Deg 30.4 µg/m3
2021-10-31 00:00 59.28 µg/m3 0.43 µg/m3 25.94 µg/m3 13.97 µg/m3 0 mg/m3 19.39 °C 89.62 % 1,015.34 mbar 0.82 m/s 190.54 Deg 14.97 µg/m3
2021-10-30 23:00 47.91 µg/m3 0.24 µg/m3 26.78 µg/m3 14.14 µg/m3 0 mg/m3 19.94 °C 86.59 % 1,015.39 mbar 0.18 m/s 242.21 Deg 4.5 µg/m3
2021-10-30 22:00 13.6 µg/m3 0.15 µg/m3 23.99 µg/m3 11.86 µg/m3 0 mg/m3 20.2 °C 84.37 % 1,015.36 mbar 0.52 m/s 303.31 Deg 2.04 µg/m3
2021-10-30 21:00 8.92 µg/m3 0.16 µg/m3 20.93 µg/m3 10.05 µg/m3 0 mg/m3 20.15 °C 83.09 % 1,014.84 mbar 0.65 m/s 160.62 Deg 0.86 µg/m3
2021-10-30 20:00 3.5 µg/m3 0.15 µg/m3 19.08 µg/m3 8.9 µg/m3 0 mg/m3 20.31 °C 82.45 % 1,014.38 mbar 1.14 m/s 207.65 Deg 0.99 µg/m3
2021-10-30 19:00 14.27 µg/m3 0.17 µg/m3 18.89 µg/m3 8.99 µg/m3 0 mg/m3 20.41 °C 82.98 % 1,014.10 mbar 1.71 m/s 177.62 Deg 2.48 µg/m3
2021-10-30 18:00 24.29 µg/m3 0.18 µg/m3 18.64 µg/m3 9.09 µg/m3 0 mg/m3 20.21 °C 83.48 % 1,013.55 mbar 1.39 m/s 238.3 Deg 5.38 µg/m3
2021-10-30 17:00 10.46 µg/m3 0.23 µg/m3 20.24 µg/m3 9.37 µg/m3 0 mg/m3 20.21 °C 81.4 % 1,013.09 mbar 1.72 m/s 334.22 Deg 2.59 µg/m3
2021-10-30 16:00 11.23 µg/m3 0.23 µg/m3 17.89 µg/m3 7.73 µg/m3 0 mg/m3 21.19 °C 72.74 % 1,012.50 mbar 2.13 m/s 347.39 Deg 1.71 µg/m3
2021-10-30 15:00 7.31 µg/m3 0.19 µg/m3 17.64 µg/m3 7.42 µg/m3 0 mg/m3 21.52 °C 70.63 % 1,012.08 mbar 2.62 m/s 347.03 Deg 2.29 µg/m3
2021-10-30 14:00 4.84 µg/m3 0.18 µg/m3 17.72 µg/m3 7.34 µg/m3 0 mg/m3 21.43 °C 71.49 % 1,012.02 mbar 2.45 m/s 343.24 Deg 1.58 µg/m3
2021-10-30 13:00 3.05 µg/m3 0.19 µg/m3 18.5 µg/m3 7.77 µg/m3 0 mg/m3 21.2 °C 73.49 % 1,012.35 mbar 2.41 m/s 337.15 Deg 1.18 µg/m3
2021-10-30 12:00 10.12 µg/m3 0.24 µg/m3 20.58 µg/m3 8.43 µg/m3 0 mg/m3 20.84 °C 75.37 % 1,012.44 mbar 2.02 m/s 256.92 Deg 4.35 µg/m3
2021-10-30 11:00 2.02 µg/m3 0.24 µg/m3 18.93 µg/m3 7.81 µg/m3 0 mg/m3 20.67 °C 72.47 % 1,012.62 mbar 2.59 m/s 265.06 Deg 1.85 µg/m3
2021-10-30 10:00 3.92 µg/m3 0.19 µg/m3 18.38 µg/m3 7.75 µg/m3 0 mg/m3 20.64 °C 71.57 % 1,012.26 mbar 2.81 m/s 345.79 Deg 1.83 µg/m3
2021-10-30 09:00 5.59 µg/m3 0.29 µg/m3 18.23 µg/m3 7.9 µg/m3 0 mg/m3 20.41 °C 71.61 % 1,011.67 mbar 2.74 m/s 344.28 Deg 5.79 µg/m3
2021-10-30 08:00 2.27 µg/m3 0.24 µg/m3 17.97 µg/m3 7.73 µg/m3 0 mg/m3 20.27 °C 71.61 % 1,011.08 mbar 2.76 m/s 347.91 Deg 1.55 µg/m3
2021-10-30 07:00 3.23 µg/m3 0.19 µg/m3 15.38 µg/m3 6.82 µg/m3 0 mg/m3 20.24 °C 69.28 % 1,010.56 mbar 3.05 m/s 347.22 Deg 1.5 µg/m3
2021-10-30 06:00 0.88 µg/m3 0.2 µg/m3 17.93 µg/m3 8.09 µg/m3 0 mg/m3 20.12 °C 73.05 % 1,010.06 mbar 2.27 m/s 314.05 Deg 0.69 µg/m3
2021-10-30 05:00 0.09 µg/m3 0.19 µg/m3 16.13 µg/m3 7.54 µg/m3 0 mg/m3 19.96 °C 73.48 % 1,009.89 mbar 2.73 m/s 320.24 Deg 0.6 µg/m3
2021-10-30 04:00 0.02 µg/m3 0.21 µg/m3 16.38 µg/m3 7.69 µg/m3 0 mg/m3 19.82 °C 73.89 % 1,009.86 mbar 3.21 m/s 288.87 Deg 0.38 µg/m3
2021-10-30 03:00 3.53 µg/m3 0.26 µg/m3 15.12 µg/m3 7.22 µg/m3 0 mg/m3 19.52 °C 77.05 % 1,009.86 mbar 3.37 m/s 273.46 Deg 0.7 µg/m3

It is to be noted that the data is provisional and subject to quality assurance procedures. For validated data kindly refer your request to contact.air@era.org.mt